DO1TOB-60 Weather Reports


time (UTC)temp
C
wind
direction
speed
KPH
gust
KPH
rain 1hr
cm
rain 24hr
cm
rain mn
cm
humidity
%
barometer
mb
20260507015702 7 314 4.8 6.4 0.00 0.28 0.05 98 1010.9
20260507015601 7 335 4.8 4.8 0.00 0.28 0.05 98 1010.9
20260507015501 6 306 4.8 4.8 0.00 0.28 0.05 98 1010.9
20260507015401 7 317 3.2 3.2 0.00 0.28 0.05 98 1010.9
20260507015305 7 318 6.4 6.4 0.00 0.28 0.05 98 1010.8
20260507015201 7 0.0 1.6 0.00 0.28 0.05 98 1010.8
20260507015102 7 0.0 0.0 0.00 0.28 0.05 98 1010.8
20260507015002 7 0.0 0.0 0.00 0.28 0.05 98 1010.9
20260507014901 7 311 4.8 4.8 0.00 0.28 0.05 98 1010.9
20260507014802 7 317 9.7 11.3 0.00 0.28 0.05 98 1010.9
20260507014702 7 0.0 3.2 0.00 0.28 0.05 98 1010.9
20260507014602 7 322 6.4 6.4 0.00 0.28 0.05 98 1010.9
20260507014502 6 317 4.8 4.8 0.00 0.28 0.05 98 1010.9
20260507014401 7 325 3.2 3.2 0.00 0.28 0.05 98 1010.9
20260507014301 7 320 3.2 4.8 0.00 0.28 0.05 98 1010.9
20260507014202 7 0.0 0.0 0.00 0.28 0.05 98 1010.8
20260507014101 6 308 1.6 3.2 0.00 0.28 0.05 98 1010.8
20260507014001 6 309 3.2 3.2 0.00 0.28 0.05 98 1010.9
20260507013902 6 317 3.2 3.2 0.00 0.28 0.05 98 1010.8
20260507013802 6 317 3.2 3.2 0.00 0.28 0.05 98 1010.8
20260507013701 6 315 3.2 3.2 0.00 0.28 0.05 98 1010.8
20260507013601 6 311 4.8 4.8 0.00 0.28 0.05 98 1010.8
20260507013502 6 309 3.2 4.8 0.00 0.28 0.05 98 1010.8
20260507013401 6 309 4.8 4.8 0.00 0.28 0.05 98 1010.8
20260507013301 6 318 6.4 6.4 0.00 0.28 0.05 98 1010.8
20260507013202 6 319 4.8 6.4 0.00 0.28 0.05 98 1010.8
20260507013102 6 317 1.6 3.2 0.00 0.28 0.05 98 1010.8
20260507013002 6 321 4.8 6.4 0.00 0.28 0.05 98 1010.8
20260507012901 6 314 4.8 4.8 0.00 0.28 0.05 98 1010.8
20260507012801 6 317 3.2 3.2 0.00 0.28 0.05 98 1010.8
20260507012701 6 318 3.2 3.2 0.00 0.28 0.05 98 1010.8
20260507012601 6 321 3.2 3.2 0.00 0.28 0.05 98 1010.8
20260507012502 6 328 1.6 1.6 0.00 0.28 0.05 98 1010.7
20260507012402 6 0.0 0.0 0.00 0.28 0.05 98 1010.7
20260507012305 6 322 6.4 6.4 0.00 0.28 0.05 98 1010.8
20260507012202 6 301 6.4 6.4 0.00 0.28 0.05 98 1010.7
20260507012101 6 319 3.2 3.2 0.00 0.28 0.05 98 1010.7
20260507012002 6 313 1.6 3.2 0.00 0.28 0.05 98 1010.7
20260507011901 6 0.0 0.0 0.00 0.28 0.05 98 1010.7
20260507011801 6 0.0 0.0 0.00 0.28 0.05 98 1010.7
20260507011701 6 321 4.8 4.8 0.00 0.28 0.05 98 1010.7
20260507011601 6 317 3.2 3.2 0.00 0.28 0.05 98 1010.7
20260507011501 6 321 3.2 3.2 0.00 0.28 0.05 98 1010.7
20260507011401 6 319 1.6 3.2 0.00 0.28 0.05 98 1010.7
20260507011302 6 312 1.6 3.2 0.00 0.28 0.05 98 1010.7
20260507011201 6 314 4.8 4.8 0.00 0.30 0.05 98 1010.7
20260507011101 6 324 6.4 6.4 0.00 0.30 0.05 98 1010.7
20260507011001 6 323 4.8 4.8 0.00 0.30 0.05 98 1010.7
20260507010902 6 325 4.8 6.4 0.00 0.30 0.05 98 1010.7
20260507010801 6 319 6.4 6.4 0.00 0.30 0.05 98 1010.7
20260507010701 6 316 4.8 4.8 0.00 0.30 0.05 98 1010.7
20260507010601 6 316 3.2 3.2 0.00 0.30 0.05 98 1010.7
20260507010501 6 0.0 0.0 0.00 0.30 0.05 98 1010.6
20260507010402 6 318 1.6 1.6 0.00 0.30 0.05 98 1010.6
20260507010301 6 317 4.8 4.8 0.00 0.30 0.05 98 1010.7
20260507010202 6 317 4.8 4.8 0.00 0.30 0.05 98 1010.7
20260507010001 6 315 4.8 4.8 0.00 0.30 0.05 98 1010.6
20260507005901 6 0.0 0.0 0.00 0.30 0.05 98 1010.7
20260507005802 6 315 4.8 4.8 0.00 0.30 0.05 98 1010.7
20260507005702 6 315 6.4 6.4 0.00 0.30 0.05 98 1010.6
20260507005601 6 325 6.4 8.0 0.00 0.30 0.05 98 1010.7
20260507005502 6 322 6.4 6.4 0.00 0.30 0.05 98 1010.6
20260507005401 6 309 4.8 6.4 0.00 0.30 0.05 98 1010.6
20260507005301 6 321 3.2 3.2 0.00 0.30 0.05 98 1010.6
20260507005201 6 323 4.8 4.8 0.00 0.30 0.05 98 1010.6
20260507005102 6 327 4.8 4.8 0.00 0.33 0.05 98 1010.6
20260507005001 6 322 4.8 6.4 0.00 0.33 0.05 98 1010.6
20260507004902 6 324 4.8 4.8 0.00 0.33 0.05 98 1010.6
20260507004801 6 310 6.4 6.4 0.00 0.33 0.05 98 1010.6
20260507004702 6 327 3.2 3.2 0.00 0.33 0.05 98 1010.7
20260507004601 6 324 6.4 6.4 0.00 0.33 0.05 98 1010.6
20260507004501 6 0.0 0.0 0.00 0.33 0.05 98 1010.7
20260507004402 6 333 4.8 4.8 0.00 0.33 0.05 98 1010.6
20260507004302 6 340 4.8 4.8 0.00 0.33 0.05 98 1010.6
20260507004201 6 343 8.0 8.0 0.00 0.33 0.05 98 1010.6
20260507004047 6 311 1.6 1.6 0.00 0.33 0.05 98 1010.6
20260507003948 6 312 4.8 4.8 0.00 0.33 0.05 98 1010.6
20260507003847 6 310 3.2 6.4 0.00 0.33 0.05 98 1010.6
20260507003747 6 338 1.6 1.6 0.00 0.33 0.05 98 1010.6
20260507003647 6 0.0 0.0 0.00 0.36 0.05 98 1010.6
20260507003537 6 312 6.4 6.4 0.00 0.36 0.05 98 1010.6
20260507003437 6 321 8.0 8.0 0.00 0.36 0.05 98 1010.6
20260507003337 6 317 4.8 4.8 0.00 0.36 0.05 98 1010.6
20260507003238 6 0.0 0.0 0.00 0.36 0.05 98 1010.6
20260507003138 6 311 3.2 3.2 0.00 0.36 0.05 98 1010.6
20260507003027 6 331 4.8 4.8 0.00 0.36 0.05 98 1010.5
20260507002927 6 327 4.8 6.4 0.00 0.38 0.05 98 1010.6
20260507002828 6 323 3.2 3.2 0.00 0.38 0.05 98 1010.6
20260507002727 6 346 4.8 8.0 0.00 0.38 0.05 98 1010.5
20260507002627 6 326 4.8 4.8 0.00 0.38 0.05 98 1010.6
20260507002527 6 312 4.8 6.4 0.00 0.38 0.05 98 1010.6
20260507002427 6 319 4.8 4.8 0.00 0.38 0.03 98 1010.6
20260507002317 6 317 3.2 3.2 0.00 0.38 0.03 98 1010.6
20260507002217 6 313 8.0 9.7 0.00 0.38 0.03 98 1010.6
20260507002118 6 311 3.2 3.2 0.00 0.38 0.03 98 1010.5
20260507002017 6 312 4.8 4.8 0.00 0.38 0.03 98 1010.5
20260507001917 6 313 1.6 1.6 0.00 0.38 0.03 98 1010.6
20260507001817 6 304 6.4 8.0 0.00 0.38 0.03 98 1010.5
20260507001722 6 312 3.2 6.4 0.00 0.38 0.03 98 1010.5
20260507001607 6 0.0 0.0 0.00 0.38 0.03 98 1010.5
20260507001507 6 0.0 0.0 0.00 0.38 0.03 98 1010.5
20260507001407 6 0.0 0.0 0.00 0.38 0.03 98 1010.5
20260507001307 6 324 1.6 3.2 0.00 0.38 0.03 98 1010.4
20260507001207 6 300 3.2 3.2 0.00 0.38 0.03 98 1010.5
20260507001108 6 300 1.6 1.6 0.00 0.38 0.03 98 1010.4
20260507000958 6 299 1.6 1.6 0.00 0.41 0.03 98 1010.4
20260507000857 6 313 1.6 1.6 0.00 0.41 0.03 98 1010.4
20260507000757 6 310 3.2 3.2 0.00 0.41 0.03 98 1010.4
20260507000658 6 324 6.4 9.7 0.00 0.41 0.03 98 1010.4
20260507000558 6 319 3.2 3.2 0.00 0.41 0.03 98 1010.4
20260507000457 6 321 8.0 8.0 0.00 0.41 0.03 98 1010.4
20260507000358 6 320 1.6 3.2 0.00 0.41 0.03 98 1010.4
20260507000247 6 317 3.2 3.2 0.00 0.41 0.03 98 1010.4
20260507000147 6 309 4.8 8.0 0.00 0.43 0.03 98 1010.4
20260507000047 6 325 4.8 4.8 0.00 0.43 0.03 98 1010.4
20260506235948 6 313 4.8 8.0 0.00 0.43 0.03 98 1010.4
20260506235848 6 313 8.0 8.0 0.00 0.43 0.03 98 1010.4
20260506235747 6 327 8.0 8.0 0.00 0.43 0.03 98 1010.4
20260506235651 6 328 4.8 4.8 0.00 0.43 0.03 98 1010.4
20260506235537 6 329 6.4 6.4 0.00 0.43 0.03 98 1010.4
20260506235438 6 321 3.2 3.2 0.00 0.43 0.03 98 1010.4
20260506235337 6 324 6.4 9.7 0.00 0.43 0.03 98 1010.4
20260506235237 6 323 6.4 6.4 0.00 0.43 0.03 98 1010.4
20260506235137 6 0.0 1.6 0.00 0.43 0.03 98 1010.4
20260506235037 6 315 3.2 3.2 0.00 0.43 0.03 98 1010.5
20260506234927 6 313 1.6 1.6 0.00 0.43 0.03 98 1010.4
20260506234827 6 304 4.8 6.4 0.00 0.43 0.03 98 1010.5
20260506234728 6 317 8.0 8.0 0.00 0.43 0.03 98 1010.5
20260506234627 6 296 3.2 3.2 0.00 0.43 0.03 98 1010.4
20260506234527 6 316 4.8 6.4 0.00 0.43 0.03 98 1010.5
20260506234427 6 309 6.4 6.4 0.00 0.43 0.03 98 1010.5
20260506234328 6 315 6.4 6.4 0.00 0.43 0.03 98 1010.4
20260506234217 6 320 3.2 3.2 0.00 0.46 0.03 98 1010.5
20260506234117 6 0.0 0.0 0.00 0.46 0.03 98 1010.5
20260506234017 6 325 4.8 4.8 0.00 0.46 0.03 98 1010.4
20260506233917 6 298 1.6 1.6 0.00 0.46 0.03 98 1010.4
20260506233817 6 323 4.8 6.4 0.00 0.46 0.03 98 1010.4
20260506233717 6 321 6.4 6.4 0.00 0.46 0.03 98 1010.5
20260506233621 6 319 6.4 6.4 0.00 0.46 0.03 98 1010.4
20260506233507 6 306 6.4 6.4 0.00 0.48 0.03 98 1010.4
20260506233407 6 319 6.4 6.4 0.00 0.48 0.00 98 1010.4
20260506233307 6 307 4.8 4.8 0.00 0.48 0.00 98 1010.4
20260506233208 6 306 4.8 6.4 0.00 0.48 0.00 98 1010.5
20260506233108 6 327 3.2 3.2 0.00 0.48 0.00 98 1010.4
20260506233007 6 329 3.2 3.2 0.00 0.48 0.00 98 1010.4
20260506232857 6 331 4.8 6.4 0.00 0.48 0.00 98 1010.4
20260506232757 6 319 4.8 4.8 0.00 0.48 0.00 98 1010.4
20260506232657 6 304 4.8 4.8 0.00 0.48 0.00 98 1010.5
20260506232557 6 317 4.8 4.8 0.00 0.48 0.00 98 1010.4
20260506232458 6 321 4.8 4.8 0.00 0.48 0.00 98 1010.5
20260506232357 6 316 6.4 11.3 0.00 0.48 0.00 98 1010.4
20260506232257 6 302 6.4 8.0 0.00 0.48 0.00 98 1010.4
20260506232147 6 333 3.2 4.8 0.00 0.48 0.00 98 1010.4
20260506232048 6 327 9.7 9.7 0.00 0.48 0.00 98 1010.4
20260506231947 6 314 6.4 8.0 0.00 0.48 0.00 98 1010.4
20260506231847 6 326 4.8 4.8 0.00 0.48 0.00 98 1010.3
20260506231748 7 0.0 0.0 0.00 0.48 0.00 98 1010.3
20260506231647 6 311 8.0 8.0 0.00 0.48 0.00 98 1010.3
20260506231551 6 317 1.6 3.2 0.00 0.48 0.00 98 1010.3
20260506231437 6 317 9.7 9.7 0.00 0.48 0.00 98 1010.3
20260506231338 7 320 9.7 11.3 0.00 0.48 0.00 98 1010.3
20260506231237 7 310 6.4 8.0 0.00 0.51 0.00 98 1010.3
20260506231137 7 305 6.4 9.7 0.00 0.51 0.00 98 1010.3
20260506231037 7 311 4.8 6.4 0.00 0.51 0.00 98 1010.3
20260506230938 7 316 6.4 6.4 0.00 0.51 0.00 98 1010.2
20260506230827 7 311 6.4 6.4 0.00 0.51 0.00 98 1010.2
20260506230727 7 328 8.0 8.0 0.00 0.51 0.00 98 1010.2
20260506230627 7 348 12.9 14.5 0.00 0.51 0.00 98 1010.3
20260506230527 7 320 8.0 8.0 0.00 0.51 0.00 98 1010.3
20260506230427 7 295 3.2 3.2 0.00 0.51 0.00 98 1010.3
20260506230327 7 322 6.4 8.0 0.00 0.51 0.00 98 1010.3
20260506230228 7 326 6.4 6.4 0.00 0.51 0.00 98 1010.3
20260506230117 7 322 4.8 4.8 0.00 0.51 0.00 98 1010.3
20260506230017 7 320 4.8 4.8 0.00 0.51 0.00 98 1010.3
20260506225917 7 320 6.4 6.4 0.00 0.51 0.00 98 1010.3
20260506225817 7 311 6.4 6.4 0.00 0.51 0.00 98 1010.3
20260506225717 7 304 4.8 6.4 0.00 0.51 0.00 98 1010.3
20260506225617 7 321 4.8 4.8 0.00 0.51 0.00 98 1010.3
20260506225521 7 0.0 0.0 0.00 0.51 0.00 98 1010.3
20260506225407 7 355 4.8 4.8 0.00 0.51 0.00 98 1010.3
20260506225307 7 317 8.0 8.0 0.00 0.51 0.00 98 1010.3
20260506225207 7 327 3.2 3.2 0.00 0.51 0.00 98 1010.3
20260506225108 7 326 6.4 6.4 0.00 0.51 0.00 98 1010.3
20260506225007 7 342 8.0 8.0 0.00 0.51 0.00 98 1010.3
20260506224907 7 315 8.0 8.0 0.00 0.51 0.00 98 1010.3
20260506224757 7 316 9.7 9.7 0.00 0.51 0.00 98 1010.3
20260506224658 7 323 3.2 3.2 0.00 0.51 0.00 98 1010.3
20260506224557 7 327 4.8 4.8 0.00 0.51 0.00 98 1010.3
20260506224457 7 325 4.8 4.8 0.00 0.51 0.00 98 1010.3
20260506224357 7 323 9.7 9.7 0.00 0.51 0.00 98 1010.3
20260506224257 7 326 6.4 6.4 0.00 0.51 0.00 98 1010.2
20260506224157 7 321 9.7 11.3 0.00 0.51 0.00 98 1010.3
20260506224047 7 315 6.4 6.4 0.00 0.51 0.00 98 1010.3
20260506223948 7 316 4.8 4.8 0.00 0.51 0.00 98 1010.2
20260506223847 7 312 6.4 8.0 0.00 0.51 0.00 98 1010.2
20260506223747 7 310 8.0 8.0 0.00 0.51 0.00 98 1010.2
20260506223647 7 313 4.8 4.8 0.00 0.51 0.00 98 1010.2
20260506223547 7 338 4.8 4.8 0.00 0.51 0.00 98 1010.2
20260506223451 7 329 6.4 6.4 0.00 0.51 0.00 98 1010.2
20260506223337 7 321 9.7 11.3 0.00 0.51 0.00 98 1010.2
20260506223237 7 323 8.0 8.0 0.00 0.51 0.00 98 1010.2
20260506223137 7 325 4.8 4.8 0.00 0.53 0.00 98 1010.2
20260506223037 7 315 6.4 6.4 0.00 0.53 0.00 98 1010.2
20260506222937 7 314 8.0 9.7 0.00 0.53 0.00 98 1010.2
20260506222837 7 320 4.8 4.8 0.00 0.53 0.00 98 1010.2
20260506222727 7 0.0 0.0 0.00 0.53 0.00 98 1010.2
20260506222627 7 0.0 3.2 0.00 0.53 0.00 98 1010.1
20260506222527 7 311 1.6 1.6 0.00 0.53 0.00 98 1010.2
20260506222428 7 298 4.8 4.8 0.00 0.53 0.00 98 1010.1
20260506222327 7 323 3.2 3.2 0.00 0.53 0.00 98 1010.1
20260506222227 7 325 4.8 4.8 0.00 0.53 0.00 98 1010.1
20260506222127 7 329 4.8 4.8 0.00 0.53 0.00 98 1010.1
20260506222027 7 314 8.0 9.7 0.00 0.53 0.00 98 1010.1
20260506221927 7 321 3.2 3.2 0.00 0.53 0.00 98 1010.1
20260506221827 7 314 6.4 6.4 0.00 0.53 0.00 98 1010.1
20260506221728 7 316 4.8 4.8 0.00 0.53 0.00 98 1010.1
20260506221627 7 308 1.6 1.6 0.00 0.53 0.00 98 1010.1
20260506221527 7 313 3.2 4.8 0.00 0.53 0.00 98 1010.2
20260506221427 7 324 8.0 8.0 0.00 0.53 0.00 98 1010.1
20260506221328 7 314 8.0 9.7 0.00 0.53 0.00 98 1010.2
20260506221227 7 314 3.2 3.2 0.00 0.53 0.00 98 1010.1
20260506221127 7 320 4.8 6.4 0.00 0.53 0.00 98 1010.1
20260506221027 7 313 8.0 8.0 0.00 0.53 0.00 98 1010.2
20260506220927 7 311 4.8 4.8 0.00 0.56 0.00 98 1010.1
20260506220827 7 325 4.8 4.8 0.00 0.56 0.00 98 1010.1
20260506220727 7 296 4.8 4.8 0.00 0.56 0.00 98 1010.1
20260506220628 7 313 1.6 1.6 0.00 0.56 0.00 98 1010.1
20260506220527 7 323 3.2 3.2 0.00 0.56 0.00 98 1010.0
20260506220427 7 320 8.0 8.0 0.00 0.56 0.00 98 1010.1
20260506220327 7 313 9.7 9.7 0.00 0.56 0.00 98 1009.9
20260506220227 7 308 3.2 4.8 0.00 0.56 0.00 98 1010.1
20260506220127 7 317 1.6 3.2 0.00 0.56 0.00 98 1010.0
20260506220027 7 330 4.8 6.4 0.00 0.56 0.00 98 1009.9
20260506215912 7 318 3.2 3.2 0.00 0.58 1.60 98 1009.9
20260506215812 7 310 3.2 8.0 0.00 0.58 1.60 98 1009.9
20260506215712 7 317 8.0 9.7 0.00 0.58 1.60 98 1009.9
20260506215612 7 327 4.8 6.4 0.00 0.58 1.60 98 1010.0
20260506215513 7 333 3.2 6.4 0.00 0.58 1.60 98 1009.9
20260506215412 7 310 4.8 6.4 0.00 0.58 1.60 98 1009.9
20260506215312 7 315 9.7 9.7 0.00 0.58 1.60 98 1010.0
20260506215212 7 290 3.2 3.2 0.00 0.58 1.60 98 1010.1
20260506215112 7 318 4.8 6.4 0.00 0.58 1.60 98 1010.0
20260506215017 7 317 3.2 4.8 0.00 0.58 1.60 98 1010.0
20260506214912 6 312 6.4 6.4 0.00 0.58 1.60 98 1010.0
20260506214812 7 323 3.2 3.2 0.00 0.58 1.60 97 1010.0
20260506214712 6 328 3.2 3.2 0.00 0.58 1.60 97 1010.0
20260506214612 6 309 4.8 4.8 0.00 0.58 1.60 97 1010.0
20260506214512 6 316 4.8 4.8 0.00 0.58 1.60 97 1010.0
20260506214413 6 314 8.0 8.0 0.00 0.58 1.60 97 1010.0
20260506214312 6 304 1.6 1.6 0.00 0.58 1.60 97 1010.0
20260506214212 6 308 4.8 8.0 0.00 0.58 1.60 97 1010.0
20260506214112 6 325 6.4 6.4 0.00 0.58 1.60 97 1010.0
20260506214012 6 345 6.4 6.4 0.00 0.58 1.60 97 1010.0
20260506213912 6 330 4.8 4.8 0.00 0.58 1.60 98 1010.0
20260506213812 6 324 6.4 8.0 0.00 0.58 1.60 98 1010.0
20260506213712 6 341 6.4 6.4 0.00 0.58 1.60 98 1010.0
20260506213612 6 321 6.4 6.4 0.00 0.58 1.60 98 1010.0
20260506213512 6 350 6.4 8.0 0.00 0.58 1.60 98 1010.0
20260506213412 6 321 8.0 8.0 0.00 0.58 1.60 98 1010.0
20260506213312 6 294 6.4 6.4 0.00 0.58 1.60 98 1009.9
20260506213212 6 314 6.4 6.4 0.00 0.58 1.60 98 1009.9
20260506213112 6 311 8.0 11.3 0.00 0.58 1.60 98 1009.9
20260506213012 6 318 12.9 16.1 0.00 0.58 1.60 98 1009.9
20260506212912 6 326 4.8 4.8 0.00 0.58 1.60 98 1009.9
20260506212812 6 338 8.0 8.0 0.00 0.58 1.60 98 1009.9
20260506212712 6 341 9.7 9.7 0.00 0.58 1.60 97 1009.9
20260506212612 6 317 11.3 11.3 0.00 0.58 1.60 98 1009.9
20260506212512 6 321 8.0 8.0 0.00 0.61 1.60 98 1009.9
20260506212412 6 326 9.7 9.7 0.00 0.61 1.60 97 1009.9
20260506212312 6 321 4.8 4.8 0.00 0.61 1.60 97 1009.9
20260506212213 6 306 9.7 9.7 0.00 0.61 1.60 98 1009.8
20260506212112 6 336 8.0 8.0 0.00 0.61 1.60 97 1009.8
20260506212012 6 312 8.0 8.0 0.00 0.61 1.60 98 1009.9
20260506211912 6 311 1.6 3.2 0.00 0.61 1.60 97 1009.8
20260506211812 6 0.0 0.0 0.00 0.61 1.60 97 1009.9
20260506211712 6 331 8.0 11.3 0.00 0.61 1.60 97 1009.9
20260506211612 6 311 4.8 9.7 0.00 0.61 1.60 97 1009.8
20260506211512 6 285 4.8 6.4 0.00 0.61 1.60 97 1009.9
20260506211412 6 306 8.0 9.7 0.00 0.61 1.60 97 1009.9
20260506211312 6 325 6.4 8.0 0.00 0.61 1.60 97 1009.8
20260506211212 6 339 3.2 4.8 0.00 0.61 1.60 97 1009.9
20260506211113 6 333 3.2 3.2 0.00 0.61 1.60 97 1009.8
20260506211012 6 334 4.8 6.4 0.00 0.61 1.60 97 1009.8
20260506210912 6 340 6.4 8.0 0.00 0.61 1.60 97 1009.8
20260506210812 6 331 9.7 11.3 0.00 0.61 1.60 97 1009.8
20260506210712 6 338 9.7 11.3 0.00 0.61 1.60 97 1009.8
20260506210612 6 323 9.7 9.7 0.00 0.61 1.60 97 1009.8
20260506210512 6 301 11.3 12.9 0.00 0.61 1.60 97 1009.8
20260506210412 6 312 6.4 6.4 0.00 0.61 1.60 97 1009.8
20260506210312 6 322 8.0 8.0 0.00 0.61 1.60 97 1009.8
20260506210212 6 316 8.0 11.3 0.00 0.61 1.60 97 1009.8
20260506210112 6 333 8.0 8.0 0.00 0.61 1.60 97 1009.8
20260506210013 6 326 6.4 8.0 0.00 0.61 1.60 97 1009.7
20260506205912 6 308 9.7 11.3 0.00 0.64 1.60 97 1009.8
20260506205812 6 316 11.3 12.9 0.00 0.64 1.60 97 1009.8
20260506205711 6 308 4.8 8.0 0.00 0.64 1.60 97 1009.7
20260506205612 6 325 9.7 9.7 0.00 0.64 1.60 97 1009.7
20260506205512 6 305 12.9 14.5 0.00 0.64 1.60 97 1009.8
20260506205412 6 332 8.0 9.7 0.00 0.64 1.60 97 1009.7
20260506205312 6 330 6.4 8.0 0.00 0.64 1.60 97 1009.7
20260506205212 6 310 8.0 8.0 0.00 0.66 1.60 97 1009.7
20260506205112 6 325 4.8 6.4 0.00 0.66 1.60 97 1009.6
20260506205012 6 322 8.0 8.0 0.00 0.66 1.60 97 1009.6
20260506204913 6 318 4.8 4.8 0.00 0.66 1.60 97 1009.7
20260506204812 6 319 6.4 6.4 0.00 0.66 1.60 97 1009.7
20260506204712 6 330 8.0 8.0 0.00 0.66 1.60 97 1009.7
20260506204612 6 320 8.0 8.0 0.00 0.66 1.60 97 1009.7
20260506204512 6 313 4.8 4.8 0.00 0.66 1.60 97 1009.7
20260506204412 6 315 9.7 9.7 0.00 0.66 1.60 97 1009.7
20260506204312 7 315 9.7 9.7 0.00 0.66 1.60 97 1009.7
20260506204212 6 329 6.4 6.4 0.00 0.66 1.60 97 1009.7
20260506204112 7 322 6.4 9.7 0.00 0.66 1.60 97 1009.7
20260506204012 6 336 6.4 8.0 0.00 0.66 1.60 97 1009.7
20260506203912 7 337 9.7 9.7 0.00 0.66 1.60 97 1009.7
20260506203813 7 308 4.8 11.3 0.00 0.69 1.60 97 1009.7
20260506203711 7 291 9.7 12.9 0.00 0.69 1.60 97 1009.7
20260506203612 7 322 11.3 12.9 0.00 0.69 1.60 97 1009.6
20260506203512 7 316 8.0 8.0 0.00 0.69 1.60 97 1009.6
20260506203412 7 324 8.0 8.0 0.00 0.69 1.60 97 1009.7
20260506203312 7 306 11.3 11.3 0.00 0.69 1.60 97 1009.7
20260506203212 7 329 9.7 11.3 0.00 0.69 1.60 97 1009.7
20260506203112 7 320 11.3 12.9 0.00 0.69 1.60 97 1009.6
20260506203012 7 346 11.3 12.9 0.00 0.69 1.60 97 1009.7
20260506202912 7 331 12.9 12.9 0.00 0.69 1.60 97 1009.7
20260506202812 7 326 16.1 16.1 0.00 0.69 1.60 97 1009.7
20260506202713 7 320 11.3 12.9 0.00 0.69 1.60 97 1009.7
20260506202612 7 313 9.7 9.7 0.00 0.69 1.60 97 1009.7
20260506202512 7 319 3.2 4.8 0.00 0.69 1.60 97 1009.6
20260506202412 7 325 6.4 6.4 0.00 0.69 1.60 97 1009.6
20260506202312 7 321 4.8 4.8 0.00 0.69 1.60 97 1009.6
20260506202212 7 312 3.2 3.2 0.00 0.69 1.60 97 1009.6
20260506202112 7 327 6.4 8.0 0.00 0.69 1.60 97 1009.6
20260506202012 7 310 6.4 6.4 0.00 0.69 1.60 97 1009.6
20260506201912 7 327 4.8 4.8 0.00 0.69 1.60 97 1009.6
20260506201812 7 312 8.0 8.0 0.00 0.69 1.60 97 1009.6
20260506201712 7 319 6.4 6.4 0.00 0.69 1.60 97 1009.6
20260506201612 7 331 4.8 4.8 0.00 0.69 1.60 97 1009.6
20260506201511 7 334 9.7 9.7 0.00 0.69 1.60 97 1009.6
20260506201411 7 334 8.0 8.0 0.00 0.69 1.60 97 1009.6
20260506201312 7 313 14.5 16.1 0.00 0.69 1.60 97 1009.6
20260506201212 7 322 4.8 6.4 0.00 0.69 1.60 97 1009.6
20260506201112 7 330 8.0 8.0 0.00 0.69 1.60 97 1009.6
20260506201012 7 331 6.4 8.0 0.00 0.69 1.60 97 1009.6
20260506200912 7 334 8.0 9.7 0.00 0.69 1.60 97 1009.5
20260506200812 7 335 9.7 11.3 0.00 0.69 1.60 97 1009.6
20260506200712 7 324 8.0 9.7 0.00 0.69 1.60 97 1009.5
20260506200611 7 327 8.0 8.0 0.00 0.69 1.60 97 1009.5
20260506200513 7 301 8.0 11.3 0.00 0.69 1.60 97 1009.5
20260506200412 7 315 14.5 19.3 0.00 0.69 1.60 97 1009.5
20260506200312 7 314 8.0 8.0 0.00 0.69 1.60 97 1009.5
20260506200214 7 332 12.9 12.9 0.00 0.69 1.60 97 1009.5
20260506200113 7 323 12.9 12.9 0.00 0.69 1.60 97 1009.5
20260506200012 7 326 6.4 8.0 0.00 0.69 1.60 97 1009.5
20260506195912 7 318 9.7 11.3 0.00 0.69 1.60 97 1009.5
20260506195812 7 318 11.3 11.3 0.00 0.69 1.60 97 1009.5
20260506195712 7 313 9.7 9.7 0.00 0.71 1.60 97 1009.4
20260506195612 7 337 4.8 4.8 0.00 0.71 1.60 97 1009.4
20260506195512 7 333 11.3 11.3 0.00 0.71 1.60 97 1009.4
20260506195412 7 334 8.0 8.0 0.00 0.71 1.60 97 1009.4
20260506195312 7 331 8.0 8.0 0.00 0.71 1.60 97 1009.5
20260506195212 7 313 11.3 11.3 0.00 0.71 1.60 97 1009.5
20260506195111 7 318 11.3 11.3 0.00 0.71 1.60 97 1009.5
20260506195012 7 333 6.4 8.0 0.00 0.71 1.60 97 1009.4
20260506194911 7 313 6.4 8.0 0.00 0.71 1.60 97 1009.4
20260506194811 7 321 6.4 6.4 0.00 0.71 1.60 97 1009.4
20260506194711 7 318 9.7 12.9 0.00 0.71 1.60 97 1009.4
20260506194612 7 315 14.5 14.5 0.00 0.71 1.60 97 1009.4
20260506194511 7 307 14.5 14.5 0.00 0.71 1.60 97 1009.4
20260506194411 7 303 6.4 8.0 0.00 0.71 1.60 97 1009.4
20260506194312 7 315 8.0 8.0 0.00 0.71 1.60 97 1009.4
20260506194211 7 330 4.8 4.8 0.00 0.71 1.60 97 1009.4
20260506194111 7 329 6.4 6.4 0.00 0.71 1.60 97 1009.3
20260506194012 7 318 11.3 11.3 0.00 0.71 1.60 97 1009.4
20260506193912 7 310 11.3 12.9 0.00 0.71 1.60 97 1009.4
20260506193812 7 335 11.3 14.5 0.00 0.71 1.60 97 1009.4
20260506193711 7 329 8.0 8.0 0.00 0.71 1.60 97 1009.4
20260506193612 7 314 12.9 12.9 0.00 0.71 1.60 97 1009.4
20260506193512 7 345 11.3 11.3 0.00 0.71 1.60 97 1009.4
20260506193411 7 333 9.7 11.3 0.00 0.71 1.60 97 1009.4
20260506193311 7 326 3.2 4.8 0.00 0.71 1.60 97 1009.3
20260506193211 7 326 8.0 8.0 0.00 0.71 1.60 97 1009.3
20260506193112 7 336 6.4 6.4 0.00 0.71 1.60 97 1009.3
20260506193012 7 307 4.8 6.4 0.00 0.71 1.60 97 1009.3
20260506192911 7 330 6.4 8.0 0.00 0.71 1.60 97 1009.3
20260506192813 7 324 12.9 12.9 0.00 0.71 1.60 97 1009.2
20260506192711 7 312 11.3 11.3 0.00 0.71 1.60 97 1009.2
20260506192611 7 319 9.7 12.9 0.00 0.71 1.60 97 1009.2
20260506192512 7 315 6.4 6.4 0.00 0.71 1.60 97 1009.2
20260506192412 7 314 8.0 8.0 0.00 0.71 1.60 97 1009.2
20260506192311 7 309 6.4 6.4 0.00 0.71 1.60 97 1009.1
20260506192212 7 317 9.7 9.7 0.00 0.74 1.60 97 1009.2
20260506192112 7 323 12.9 14.5 0.00 0.74 1.60 97 1009.1
20260506192011 7 329 9.7 9.7 0.00 0.74 1.60 97 1009.1
20260506191911 7 320 9.7 9.7 0.00 0.74 1.60 97 1009.1
20260506191812 7 324 11.3 11.3 0.00 0.74 1.60 97 1009.1
20260506191713 7 333 9.7 11.3 0.00 0.74 1.60 97 1009.1
20260506191611 7 315 6.4 6.4 0.00 0.74 1.60 97 1009.0
20260506191511 7 321 9.7 9.7 0.00 0.74 1.60 97 1009.1
20260506191412 7 305 4.8 4.8 0.00 0.74 1.60 97 1009.0
20260506191312 7 305 11.3 11.3 0.00 0.74 1.60 97 1009.0
20260506191211 7 307 8.0 8.0 0.00 0.74 1.60 97 1009.0
20260506191112 7 324 4.8 4.8 0.00 0.74 1.60 97 1009.0
20260506191012 7 336 8.0 9.7 0.00 0.74 1.60 97 1009.0
20260506190911 7 316 8.0 9.7 0.00 0.74 1.60 97 1009.0
20260506190811 7 304 11.3 12.9 0.00 0.76 1.60 97 1009.0
20260506190711 7 313 14.5 14.5 0.00 0.76 1.60 97 1009.0
20260506190612 7 319 9.7 11.3 0.00 0.76 1.60 97 1008.9
20260506190512 7 328 11.3 11.3 0.00 0.76 1.60 97 1009.0
20260506190412 7 330 14.5 14.5 0.00 0.76 1.60 97 1008.9
20260506190312 7 319 8.0 8.0 0.00 0.76 1.60 97 1008.9
20260506190212 7 324 9.7 9.7 0.00 0.76 1.60 97 1008.9
20260506190111 7 335 8.0 8.0 0.00 0.76 1.60 97 1008.9
20260506190011 7 312 6.4 6.4 0.00 0.76 1.60 97 1008.9
20260506185912 7 333 9.7 9.7 0.00 0.76 1.60 97 1008.9
20260506185811 7 326 11.3 11.3 0.00 0.76 1.60 97 1009.0
20260506185712 7 324 6.4 8.0 0.00 0.76 1.60 97 1008.9
20260506185611 7 329 9.7 9.7 0.00 0.76 1.60 97 1008.9
20260506185512 7 315 4.8 4.8 0.00 0.76 1.60 97 1008.9
20260506185411 7 319 4.8 4.8 0.00 0.76 1.60 97 1008.9
20260506185311 7 320 8.0 8.0 0.00 0.76 1.60 97 1008.9
20260506185212 7 325 6.4 6.4 0.00 0.76 1.60 97 1008.9
20260506185112 7 333 6.4 8.0 0.00 0.76 1.60 97 1008.9
20260506185012 7 314 4.8 4.8 0.00 0.76 1.60 97 1008.9
20260506184911 7 0.0 0.0 0.00 0.79 1.60 97 1008.9
20260506184812 7 313 3.2 3.2 0.00 0.79 1.60 97 1008.9
20260506184711 7 316 8.0 8.0 0.00 0.79 1.60 97 1008.9
20260506184611 7 322 8.0 8.0 0.00 0.79 1.57 97 1008.9
20260506184511 7 312 4.8 4.8 0.00 0.79 1.57 97 1008.8
20260506184412 7 318 4.8 4.8 0.00 0.79 1.57 97 1008.8
20260506184312 7 319 4.8 4.8 0.00 0.79 1.57 97 1008.8
20260506184211 7 339 9.7 9.7 0.00 0.79 1.57 97 1008.8
20260506184111 7 330 9.7 11.3 0.00 0.79 1.57 97 1008.8
20260506184012 7 322 8.0 8.0 0.00 0.79 1.57 97 1008.8
20260506183911 7 341 6.4 6.4 0.00 0.79 1.57 97 1008.7
20260506183811 7 323 6.4 8.0 0.00 0.79 1.57 97 1008.7
20260506183711 7 327 4.8 4.8 0.00 0.79 1.57 97 1008.7
20260506183611 7 325 6.4 6.4 0.00 0.79 1.57 97 1008.7
20260506183511 7 321 9.7 9.7 0.00 0.79 1.57 97 1008.7
20260506183412 7 313 8.0 9.7 0.00 0.79 1.57 97 1008.6
20260506183313 7 328 8.0 8.0 0.00 0.79 1.57 97 1008.7
20260506183211 7 311 6.4 6.4 0.00 0.79 1.57 97 1008.7
20260506183112 7 323 3.2 4.8 0.00 0.79 1.57 97 1008.6
20260506183011 7 333 6.4 6.4 0.00 0.79 1.57 97 1008.6
20260506182912 7 335 8.0 8.0 0.00 0.79 1.57 97 1008.5
20260506182811 7 317 8.0 9.7 0.00 0.79 1.57 97 1008.6
20260506182712 7 324 4.8 4.8 0.00 0.79 1.57 97 1008.6
20260506182611 7 320 3.2 4.8 0.00 0.79 1.57 97 1008.6
20260506182511 7 336 4.8 4.8 0.00 0.79 1.57 97 1008.6
20260506182412 7 341 8.0 8.0 0.00 0.79 1.57 97 1008.6
20260506182311 7 332 9.7 9.7 0.00 0.79 1.57 97 1008.6
20260506182213 7 325 4.8 6.4 0.00 0.79 1.57 97 1008.6
20260506182111 7 323 6.4 6.4 0.00 0.79 1.57 97 1008.6
20260506182011 7 302 4.8 4.8 0.00 0.79 1.57 97 1008.6
20260506181911 7 334 6.4 6.4 0.00 0.79 1.57 97 1008.6
20260506181812 7 321 8.0 8.0 0.00 0.79 1.57 97 1008.5
20260506181711 7 313 9.7 9.7 0.00 0.79 1.57 97 1008.5
20260506181612 7 331 4.8 6.4 0.00 0.79 1.57 97 1008.5
20260506181512 7 327 4.8 4.8 0.00 0.79 1.57 97 1008.5
20260506181411 7 331 6.4 6.4 0.00 0.79 1.57 97 1008.5
20260506181311 7 325 4.8 4.8 0.00 0.79 1.57 97 1008.5
20260506181211 7 325 4.8 4.8 0.00 0.79 1.57 97 1008.5
20260506181112 7 298 8.0 9.7 0.00 0.79 1.57 97 1008.4
20260506181011 7 344 6.4 6.4 0.00 0.79 1.57 97 1008.4
20260506180911 7 325 6.4 8.0 0.00 0.79 1.57 97 1008.4
20260506180812 7 325 4.8 6.4 0.00 0.79 1.57 97 1008.4
20260506180712 7 324 6.4 8.0 0.00 0.79 1.57 97 1008.4
20260506180612 7 311 8.0 8.0 0.00 0.79 1.57 97 1008.4
20260506180512 7 330 9.7 9.7 0.00 0.79 1.57 97 1008.4
20260506180412 7 334 8.0 8.0 0.00 0.79 1.57 97 1008.4
20260506180311 7 337 6.4 6.4 0.00 0.79 1.57 97 1008.4
20260506180211 7 335 6.4 6.4 0.00 0.79 1.57 97 1008.4
20260506180111 7 320 4.8 4.8 0.00 0.79 1.57 97 1008.3
20260506180012 7 315 8.0 8.0 0.00 0.79 1.57 97 1008.4
20260506175911 7 320 8.0 8.0 0.00 0.79 1.55 97 1008.3
20260506175812 7 329 8.0 8.0 0.00 0.79 1.55 97 1008.3
20260506175711 7 323 9.7 11.3 0.00 0.79 1.55 97 1008.3
20260506175612 7 330 4.8 6.4 0.00 0.79 1.55 97 1008.3
20260506175511 7 327 9.7 9.7 0.00 0.79 1.55 97 1008.3
20260506175411 7 328 6.4 6.4 0.00 0.79 1.55 97 1008.3
20260506175312 7 329 4.8 4.8 0.00 0.79 1.55 97 1008.2
20260506175211 7 342 8.0 8.0 0.00 0.79 1.55 97 1008.3
20260506175112 7 315 4.8 4.8 0.00 0.79 1.55 97 1008.3
20260506175011 7 310 6.4 8.0 0.00 0.79 1.55 97 1008.2
20260506174912 7 299 9.7 9.7 0.00 0.79 1.55 97 1008.3
20260506174811 7 329 6.4 6.4 0.00 0.79 1.55 97 1008.3
20260506174711 7 333 6.4 6.4 0.00 0.79 1.55 97 1008.2
20260506174611 7 332 4.8 4.8 0.00 0.79 1.55 97 1008.3
20260506174512 7 336 4.8 6.4 0.00 0.79 1.55 97 1008.2
20260506174412 7 322 4.8 4.8 0.00 0.79 1.55 97 1008.2
20260506174311 7 344 6.4 6.4 0.00 0.79 1.55 97 1008.2
20260506174212 7 342 9.7 9.7 0.00 0.79 1.55 97 1008.2
20260506174111 7 333 6.4 6.4 0.00 0.79 1.55 97 1008.2
20260506174011 7 337 4.8 4.8 0.00 0.79 1.55 97 1008.2
20260506173857 7 326 4.8 6.4 0.00 0.81 1.55 97 1008.2
20260506173759 7 337 6.4 6.4 0.00 0.81 1.55 97 1008.2
20260506173657 7 340 4.8 4.8 0.00 0.81 1.55 97 1008.2
20260506173558 7 336 9.7 9.7 0.00 0.81 1.55 97 1008.2
20260506173457 7 331 9.7 9.7 0.00 0.81 1.55 97 1008.2
20260506173348 7 340 16.1 16.1 0.00 0.81 1.55 97 1008.2
20260506173247 7 339 11.3 11.3 0.00 0.81 1.55 97 1008.1
20260506173148 7 333 3.2 4.8 0.00 0.81 1.55 97 1008.2
20260506173048 7 327 4.8 6.4 0.00 0.81 1.55 97 1008.1
20260506172947 7 315 8.0 8.0 0.00 0.81 1.55 97 1008.2
20260506172847 7 333 8.0 8.0 0.00 0.81 1.55 97 1008.1
20260506172751 7 331 9.7 9.7 0.00 0.81 1.55 97 1008.1
20260506172638 7 345 9.7 9.7 0.00 0.81 1.55 97 1008.1
20260506172538 7 325 6.4 8.0 0.00 0.81 1.55 97 1008.1
20260506172437 7 330 8.0 8.0 0.00 0.81 1.55 97 1008.1
20260506172337 7 327 6.4 6.4 0.00 0.81 1.55 97 1008.1
20260506172238 7 327 4.8 4.8 0.00 0.81 1.55 97 1008.0
20260506172137 7 329 3.2 4.8 0.00 0.81 1.55 97 1008.1
20260506172027 7 343 6.4 6.4 0.00 0.81 1.55 97 1008.0
20260506171928 7 331 4.8 8.0 0.00 0.81 1.55 97 1008.0
20260506171827 7 321 6.4 6.4 0.00 0.81 1.55 97 1008.0
20260506171727 7 321 6.4 8.0 0.00 0.81 1.55 97 1008.0
20260506171627 7 311 6.4 6.4 0.00 0.81 1.55 97 1008.0
20260506171528 7 321 11.3 11.3 0.00 0.81 1.55 97 1008.0
20260506171427 7 334 6.4 6.4 0.00 0.81 1.55 97 1008.0
20260506171317 7 325 6.4 6.4 0.00 0.81 1.55 97 1008.0
20260506171217 7 319 4.8 4.8 0.00 0.81 1.55 97 1008.0
20260506171118 7 317 4.8 4.8 0.00 0.81 1.55 97 1008.0
20260506171017 7 317 6.4 8.0 0.00 0.81 1.55 97 1008.0
20260506170917 7 320 8.0 8.0 0.00 0.81 1.55 97 1007.9
20260506170817 7 320 3.2 4.8 0.00 0.81 1.55 97 1008.0
20260506170723 7 319 4.8 8.0 0.00 0.81 1.55 97 1008.0
20260506170608 7 317 6.4 6.4 0.00 0.81 1.55 97 1007.9
20260506170508 7 310 4.8 6.4 0.00 0.81 1.55 97 1008.0
20260506170408 7 309 3.2 3.2 0.00 0.81 1.55 97 1008.0
20260506170307 7 304 8.0 8.0 0.00 0.81 1.55 97 1008.0
20260506170207 7 323 3.2 3.2 0.00 0.81 1.55 97 1007.9
20260506170107 7 322 4.8 4.8 0.00 0.81 1.55 97 1007.9
20260506165958 7 321 4.8 6.4 0.00 0.81 1.55 97 1007.9
20260506165857 7 331 1.6 3.2 0.00 0.81 1.55 97 1008.0
20260506165757 7 327 6.4 6.4 0.00 0.81 1.55 97 1007.9
20260506165657 7 315 8.0 9.7 0.00 0.81 1.55 97 1007.9
20260506165557 7 328 3.2 4.8 0.00 0.81 1.55 97 1007.9
20260506165447 7 331 3.2 4.8 0.00 0.81 1.55 97 1007.9
20260506165347 7 332 3.2 4.8 0.00 0.81 1.55 97 1007.9
20260506165248 7 332 6.4 6.4 0.00 0.81 1.55 97 1007.9
20260506165147 7 335 3.2 3.2 0.00 0.81 1.55 97 1007.9
20260506165047 7 321 6.4 8.0 0.00 0.81 1.55 97 1008.0
20260506164947 7 317 3.2 3.2 0.00 0.81 1.55 97 1007.9
20260506164848 7 331 3.2 6.4 0.00 0.81 1.55 97 1007.9
20260506164748 7 328 4.8 4.8 0.00 0.81 1.55 97 1007.9
20260506164651 7 327 8.0 8.0 0.00 0.81 1.55 97 1007.9
20260506164537 7 329 4.8 4.8 0.00 0.81 1.55 97 1007.9
20260506164437 7 329 4.8 4.8 0.00 0.81 1.55 97 1007.9
20260506164338 7 329 3.2 3.2 0.00 0.81 1.55 97 1007.9
20260506164237 7 323 4.8 4.8 0.00 0.81 1.55 97 1007.9
20260506164138 7 325 3.2 3.2 0.00 0.81 1.55 97 1007.8
20260506164037 7 316 6.4 6.4 0.00 0.81 1.55 97 1007.8
20260506163927 7 319 6.4 8.0 0.00 0.81 1.55 97 1007.9
20260506163827 7 310 3.2 3.2 0.00 0.81 1.55 97 1007.8
20260506163728 7 329 1.6 1.6 0.00 0.81 1.55 97 1007.9
20260506163627 7 329 3.2 4.8 0.00 0.81 1.55 97 1007.9
20260506163527 7 325 6.4 6.4 0.00 0.81 1.55 97 1007.9
20260506163428 7 311 6.4 6.4 0.00 0.81 1.55 97 1007.8
20260506163327 7 326 6.4 6.4 0.00 0.81 1.55 97 1007.9
20260506163217 7 313 1.6 1.6 0.00 0.81 1.55 97 1007.8
20260506163117 7 294 8.0 8.0 0.00 0.81 1.55 97 1007.8
20260506163018 7 326 8.0 8.0 0.00 0.81 1.55 97 1007.8
20260506162917 7 319 4.8 4.8 0.00 0.81 1.55 97 1007.9
20260506162817 7 313 4.8 6.4 0.00 0.81 1.55 97 1007.8
20260506162717 7 317 6.4 6.4 0.00 0.81 1.55 97 1007.8
20260506162622 7 319 3.2 4.8 0.00 0.81 1.55 97 1007.8
20260506162507 7 315 6.4 6.4 0.00 0.81 1.55 97 1007.8
20260506162407 7 313 3.2 4.8 0.00 0.81 1.55 97 1007.8
20260506162307 7 303 6.4 6.4 0.00 0.81 1.55 97 1007.9
20260506162207 7 298 3.2 4.8 0.00 0.81 1.55 97 1007.9
20260506162107 7 340 3.2 3.2 0.00 0.81 1.55 97 1007.8
20260506162007 7 340 6.4 6.4 0.00 0.81 1.55 97 1007.8
20260506161858 7 316 8.0 9.7 0.00 0.81 1.55 97 1007.9
20260506161757 7 317 6.4 6.4 0.00 0.81 1.55 97 1007.7
20260506161657 7 333 4.8 4.8 0.00 0.81 1.55 97 1007.8
20260506161557 7 331 6.4 6.4 0.00 0.81 1.55 97 1007.8
20260506161458 7 330 4.8 6.4 0.00 0.81 1.55 97 1007.8
20260506161357 7 334 6.4 6.4 0.00 0.81 1.55 97 1007.8
20260506161257 7 314 4.8 4.8 0.00 0.81 1.55 97 1007.8
20260506161147 7 316 4.8 4.8 0.00 0.81 1.55 97 1007.8
20260506161047 7 331 3.2 3.2 0.00 0.81 1.55 97 1007.8
20260506160947 7 331 4.8 6.4 0.00 0.81 1.55 97 1007.8
20260506160847 7 329 4.8 4.8 0.00 0.81 1.55 97 1007.8
20260506160748 7 319 4.8 6.4 0.00 0.81 1.55 97 1007.8
20260506160647 7 327 6.4 6.4 0.00 0.81 1.55 97 1007.8
20260506160551 7 306 8.0 9.7 0.00 0.81 1.55 97 1007.8
20260506160437 7 322 8.0 8.0 0.00 0.81 1.55 97 1007.8
20260506160338 7 317 4.8 4.8 0.00 0.81 1.55 97 1007.8
20260506160237 7 338 4.8 4.8 0.00 0.81 1.55 97 1007.8
20260506160137 7 342 1.6 3.2 0.00 0.81 1.55 97 1007.8
20260506160038 7 0.0 3.2 0.00 0.81 1.55 97 1007.7
20260506155937 7 0.0 0.0 0.00 0.81 1.55 97 1007.7
20260506155827 7 229 1.6 3.2 0.00 0.81 1.55 97 1007.8
20260506155727 7 323 8.0 8.0 0.00 0.81 1.55 97 1007.8
20260506155628 7 305 6.4 6.4 0.00 0.81 1.55 97 1007.8
20260506155527 7 331 1.6 3.2 0.00 0.81 1.55 97 1007.8
20260506155427 7 0.0 0.0 0.00 0.81 1.55 97 1007.7
20260506155327 7 308 1.6 3.2 0.00 0.81 1.55 97 1007.8
20260506155228 7 306 3.2 4.8 0.00 0.81 1.55 97 1007.7
20260506155127 7 333 8.0 8.0 0.00 0.81 1.55 97 1007.7
20260506155027 7 312 4.8 4.8 0.00 0.81 1.55 97 1007.7
20260506154927 7 313 6.4 6.4 0.00 0.81 1.55 97 1007.7
20260506154827 7 311 6.4 6.4 0.00 0.81 1.55 97 1007.7
20260506154727 7 299 3.2 3.2 0.00 0.81 1.55 97 1007.7
20260506154627 7 310 3.2 3.2 0.00 0.81 1.55 97 1007.7
20260506154528 7 319 4.8 4.8 0.00 0.81 1.55 97 1007.7
20260506154428 7 311 9.7 9.7 0.00 0.81 1.55 97 1007.7
20260506154327 7 312 8.0 8.0 0.00 0.81 1.55 97 1007.7
20260506154227 7 299 6.4 6.4 0.00 0.81 1.55 97 1007.7
20260506154128 7 320 4.8 4.8 0.00 0.81 1.55 97 1007.7
20260506154027 7 315 6.4 6.4 0.00 0.81 1.55 97 1007.7
20260506153927 7 331 8.0 8.0 0.00 0.81 1.55 97 1007.7
20260506153831 7 324 6.4 6.4 0.00 0.81 1.55 97 1007.8
20260506153717 7 318 6.4 6.4 0.00 0.81 1.55 97 1007.8
20260506153617 7 316 4.8 4.8 0.00 0.81 1.55 97 1007.8
20260506153517 7 315 8.0 8.0 0.00 0.81 1.55 97 1007.9
20260506153418 7 323 4.8 4.8 0.00 0.81 1.55 97 1007.8
20260506153322 7 332 9.7 12.9 0.00 0.81 1.55 97 1007.9
20260506153207 7 335 4.8 4.8 0.00 0.81 1.55 97 1007.8
20260506153107 7 314 4.8 4.8 0.00 0.81 1.55 97 1007.8
20260506153007 7 323 4.8 4.8 0.00 0.81 1.55 97 1007.8
20260506152907 7 330 6.4 8.0 0.00 0.81 1.55 97 1007.8
20260506152807 7 334 4.8 6.4 0.00 0.81 1.55 97 1007.8
20260506152707 7 304 6.4 6.4 0.00 0.81 1.55 97 1007.8
20260506152607 7 312 6.4 6.4 0.00 0.81 1.55 97 1007.8
20260506152507 7 323 4.8 4.8 0.00 0.81 1.55 97 1007.8
20260506152407 7 317 4.8 6.4 0.00 0.81 1.55 97 1007.8
20260506152308 7 314 1.6 3.2 0.00 0.81 1.55 97 1007.8
20260506152207 7 327 9.7 11.3 0.00 0.81 1.55 97 1007.7
20260506152107 7 321 3.2 4.8 0.00 0.81 1.55 97 1007.8
20260506152007 7 309 4.8 6.4 0.00 0.81 1.55 97 1007.7
20260506151908 7 355 4.8 6.4 0.00 0.81 1.55 97 1007.8
20260506151807 7 304 3.2 3.2 0.00 0.81 1.55 97 1007.8
20260506151707 7 314 9.7 9.7 0.00 0.81 1.55 97 1007.7
20260506151607 7 314 6.4 6.4 0.00 0.81 1.55 97 1007.8
20260506151507 7 326 6.4 6.4 0.00 0.81 1.55 97 1007.7
20260506151407 7 306 4.8 4.8 0.00 0.81 1.55 97 1007.7
20260506151307 7 297 4.8 4.8 0.00 0.81 1.55 97 1007.8
20260506151208 7 302 3.2 3.2 0.00 0.81 1.55 97 1007.7
20260506151107 7 316 6.4 6.4 0.00 0.81 1.55 97 1007.7
20260506151008 7 317 4.8 4.8 0.00 0.81 1.55 97 1007.7
20260506150907 7 325 4.8 4.8 0.00 0.81 1.55 97 1007.7
20260506150808 7 329 4.8 4.8 0.00 0.81 1.55 97 1007.7
20260506150708 7 325 8.0 9.7 0.00 0.81 1.55 97 1007.7
20260506150607 7 303 3.2 3.2 0.00 0.81 1.55 97 1007.7
20260506150507 7 327 6.4 6.4 0.00 0.81 1.55 97 1007.7
20260506150407 7 304 9.7 11.3 0.00 0.81 1.55 97 1007.7
20260506150307 7 0.0 0.0 0.00 0.81 1.55 97 1007.8
20260506150207 7 306 1.6 1.6 0.00 0.81 1.55 97 1007.7
20260506150108 7 0.0 0.0 0.00 0.81 1.55 97 1007.7
20260506150007 7 0.0 0.0 0.00 0.81 1.55 97 1007.7
20260506145907 7 324 8.0 8.0 0.00 0.81 1.55 97 1007.7
20260506145807 7 307 6.4 8.0 0.00 0.81 1.55 97 1007.7
20260506145707 7 320 8.0 8.0 0.00 0.81 1.55 97 1007.7
20260506145607 7 321 1.6 1.6 0.00 0.81 1.55 97 1007.7
20260506145507 7 298 1.6 1.6 0.00 0.81 1.55 97 1007.7
20260506145407 7 338 6.4 6.4 0.00 0.81 1.55 97 1007.7
20260506145307 7 320 4.8 4.8 0.00 0.81 1.55 97 1007.7
20260506145207 7 326 6.4 9.7 0.00 0.81 1.55 97 1007.7
20260506145107 7 310 6.4 6.4 0.00 0.81 1.55 97 1007.7
20260506145008 7 308 9.7 11.3 0.00 0.81 1.55 97 1007.7
20260506144907 7 320 1.6 1.6 0.00 0.81 1.55 97 1007.7
20260506144807 7 321 9.7 9.7 0.00 0.81 1.55 97 1007.7
20260506144707 7 315 4.8 4.8 0.00 0.81 1.55 97 1007.7
20260506144608 7 323 1.6 1.6 0.00 0.81 1.55 97 1007.7
20260506144507 7 314 8.0 8.0 0.00 0.81 1.55 97 1007.6
20260506144407 7 306 3.2 3.2 0.00 0.81 1.55 97 1007.6
20260506144307 7 267 4.8 4.8 0.00 0.81 1.55 97 1007.6
20260506144207 7 313 3.2 4.8 0.00 0.81 1.55 97 1007.6
20260506144107 7 313 4.8 4.8 0.00 0.81 1.55 97 1007.6
20260506144007 7 0.0 1.6 0.00 0.81 1.55 97 1007.6
20260506143908 7 307 4.8 4.8 0.00 0.81 1.55 97 1007.6
20260506143807 7 314 3.2 3.2 0.00 0.81 1.55 97 1007.6
20260506143707 7 320 3.2 3.2 0.00 0.81 1.55 97 1007.5
20260506143607 7 322 9.7 9.7 0.00 0.81 1.55 97 1007.6
20260506143507 7 306 6.4 8.0 0.00 0.81 1.55 97 1007.5
20260506143407 7 309 4.8 4.8 0.00 0.81 1.55 97 1007.5
20260506143307 7 331 4.8 6.4 0.00 0.81 1.55 97 1007.5
20260506143207 7 319 4.8 4.8 0.00 0.81 1.55 97 1007.5
20260506143107 7 307 8.0 9.7 0.00 0.81 1.55 97 1007.5
20260506143007 7 317 6.4 6.4 0.00 0.81 1.55 97 1007.5
20260506142907 7 325 3.2 3.2 0.00 0.81 1.55 97 1007.5
20260506142808 7 333 9.7 9.7 0.00 0.81 1.55 97 1007.4
20260506142707 7 321 8.0 9.7 0.00 0.81 1.55 97 1007.4
20260506142607 7 343 8.0 8.0 0.00 0.81 1.55 97 1007.5
20260506142507 7 314 3.2 4.8 0.00 0.81 1.55 97 1007.4
20260506142407 7 315 4.8 4.8 0.00 0.81 1.55 97 1007.5
20260506142307 7 312 1.6 1.6 0.00 0.81 1.55 97 1007.4
20260506142207 7 0.0 0.0 0.00 0.81 1.55 97 1007.5
20260506142107 7 309 6.4 6.4 0.00 0.81 1.55 97 1007.5
20260506142007 7 332 6.4 6.4 0.00 0.81 1.55 97 1007.5
20260506141907 7 339 3.2 3.2 0.00 0.81 1.55 97 1007.5
20260506141807 7 309 3.2 3.2 0.00 0.81 1.55 97 1007.5
20260506141707 7 316 4.8 4.8 0.00 0.81 1.55 97 1007.5
20260506141607 7 316 6.4 8.0 0.00 0.81 1.55 97 1007.5
20260506141507 7 284 4.8 4.8 0.00 0.81 1.55 97 1007.5
20260506141407 7 310 4.8 6.4 0.00 0.81 1.55 97 1007.5
20260506141307 7 324 6.4 6.4 0.00 0.81 1.55 97 1007.5
20260506141207 7 323 1.6 3.2 0.00 0.81 1.55 97 1007.5
20260506141107 7 329 3.2 4.8 0.00 0.81 1.55 97 1007.5
20260506141008 7 312 8.0 9.7 0.00 0.81 1.55 97 1007.5
20260506140907 7 313 4.8 4.8 0.00 0.81 1.55 97 1007.4
20260506140807 7 315 4.8 4.8 0.00 0.81 1.55 97 1007.5
20260506140707 7 314 6.4 6.4 0.00 0.81 1.55 97 1007.5
20260506140607 7 305 8.0 8.0 0.00 0.81 1.55 97 1007.4
20260506140507 7 310 3.2 4.8 0.00 0.81 1.55 97 1007.5
20260506140407 7 320 3.2 4.8 0.00 0.81 1.55 97 1007.5
20260506140307 7 306 4.8 4.8 0.00 0.81 1.55 97 1007.4
20260506140207 7 319 3.2 3.2 0.00 0.81 1.55 97 1007.5
20260506140107 8 329 12.9 12.9 0.00 0.81 1.55 97 1007.4
20260506140007 8 311 3.2 4.8 0.00 0.81 1.55 97 1007.5
20260506135907 8 330 8.0 8.0 0.00 0.81 1.55 97 1007.5
20260506135807 8 267 3.2 3.2 0.00 0.81 1.55 97 1007.5
20260506135707 8 315 1.6 1.6 0.00 0.81 1.55 97 1007.4
20260506135607 8 0.0 0.0 0.00 0.81 1.55 97 1007.4
20260506135508 8 0.0 0.0 0.00 0.81 1.55 97 1007.4
20260506135407 8 0.0 0.0 0.00 0.81 1.55 97 1007.4
20260506135307 8 318 6.4 8.0 0.00 0.81 1.55 97 1007.4
20260506135207 8 315 6.4 8.0 0.00 0.81 1.55 97 1007.4
20260506135107 8 0.0 0.0 0.00 0.81 1.55 97 1007.4
20260506135007 8 0.0 0.0 0.00 0.81 1.55 97 1007.4
20260506134907 8 0.0 1.6 0.00 0.81 1.55 97 1007.4
20260506134807 8 320 3.2 4.8 0.00 0.81 1.55 97 1007.4
20260506134707 8 0.0 0.0 0.00 0.81 1.55 97 1007.4
20260506134607 8 0.0 1.6 0.00 0.81 1.55 97 1007.4
20260506134507 8 0.0 0.0 0.00 0.81 1.55 97 1007.3
20260506134407 8 0.0 3.2 0.00 0.81 1.55 97 1007.4
20260506134307 8 313 4.8 4.8 0.00 0.81 1.55 97 1007.4
20260506134207 8 315 4.8 6.4 0.00 0.81 1.55 97 1007.4
20260506134107 8 329 4.8 4.8 0.00 0.81 1.55 97 1007.3
20260506134007 8 317 3.2 3.2 0.00 0.81 1.55 97 1007.4
20260506133907 8 317 3.2 4.8 0.00 0.81 1.55 97 1007.3
20260506133807 8 316 4.8 4.8 0.00 0.81 1.55 97 1007.4
20260506133707 8 0.0 0.0 0.00 0.81 1.52 97 1007.4
20260506133607 8 317 3.2 3.2 0.00 0.81 1.52 97 1007.3
20260506133507 8 319 4.8 4.8 0.00 0.81 1.52 97 1007.3
20260506133407 8 314 1.6 3.2 0.00 0.81 1.52 97 1007.3
20260506133308 8 0.0 0.0 0.00 0.81 1.52 97 1007.3
20260506133207 8 313 3.2 3.2 0.00 0.81 1.52 97 1007.3
20260506133107 8 0.0 0.0 0.00 0.81 1.52 97 1007.3
20260506133007 8 0.0 0.0 0.00 0.84 1.52 97 1007.3
20260506132908 8 0.0 0.0 0.00 0.84 1.52 97 1007.3
20260506132807 8 0.0 0.0 0.00 0.84 1.52 97 1007.3
20260506132707 8 315 3.2 4.8 0.00 0.84 1.52 97 1007.3
20260506132607 8 314 1.6 1.6 0.00 0.89 1.52 97 1007.3
20260506132507 8 313 4.8 4.8 0.00 0.99 1.52 97 1007.3
20260506132407 8 0.0 0.0 0.00 1.07 1.52 97 1007.3
20260506132307 8 0.0 0.0 0.00 1.07 1.52 97 1007.3
20260506132208 8 306 6.4 6.4 0.00 1.07 1.52 97 1007.3
20260506132107 8 0.0 0.0 0.00 1.07 1.52 97 1007.3
20260506132007 8 315 1.6 4.8 0.00 1.07 1.52 97 1007.4
20260506131907 8 313 1.6 1.6 0.00 1.07 1.52 97 1007.4
20260506131807 8 0.0 1.6 0.00 1.07 1.52 97 1007.3
20260506131707 8 0.0 0.0 0.00 1.07 1.52 97 1007.3
20260506131607 8 313 3.2 4.8 0.00 1.07 1.52 97 1007.3
20260506131507 8 315 6.4 6.4 0.00 1.07 1.52 97 1007.3
20260506131406 7 0.0 0.0 0.00 1.07 1.52 97 1007.3
20260506131307 7 315 3.2 3.2 0.00 1.07 1.52 97 1007.3
20260506131207 7 315 1.6 1.6 0.00 1.07 1.52 97 1007.3
20260506131108 7 316 1.6 1.6 0.00 1.07 1.52 97 1007.3
20260506131007 7 317 3.2 3.2 0.00 1.07 1.52 97 1007.3
20260506130907 7 0.0 0.0 0.00 1.07 1.52 97 1007.3
20260506130807 7 0.0 0.0 0.00 1.07 1.52 97 1007.2
20260506130707 7 0.0 0.0 0.00 1.07 1.52 97 1007.3
20260506130607 7 317 1.6 3.2 0.00 1.07 1.52 97 1007.3
20260506130507 7 312 6.4 6.4 0.00 1.07 1.52 97 1007.3
20260506130407 7 311 1.6 3.2 0.00 1.07 1.52 97 1007.3
20260506130307 7 315 3.2 4.8 0.00 1.07 1.52 97 1007.3
20260506130207 7 317 4.8 4.8 0.00 1.07 1.52 97 1007.3
20260506130107 7 324 1.6 1.6 0.00 1.07 1.52 97 1007.3
20260506130008 7 0.0 0.0 0.00 1.07 1.52 97 1007.3
20260506125907 7 0.0 3.2 0.00 1.07 1.52 97 1007.3
20260506125807 7 0.0 0.0 0.00 1.07 1.52 97 1007.2
20260506125707 7 0.0 0.0 0.00 1.07 1.52 97 1007.2
20260506125607 7 0.0 0.0 0.00 1.07 1.52 97 1007.2
20260506125507 7 332 1.6 3.2 0.00 1.07 1.52 97 1007.3
20260506125407 7 333 1.6 1.6 0.00 1.07 1.52 97 1007.2
20260506125307 7 327 6.4 6.4 0.00 1.07 1.52 97 1007.2
20260506125207 7 315 3.2 6.4 0.00 1.07 1.52 97 1007.2
20260506125107 7 313 8.0 8.0 0.00 1.07 1.52 97 1007.2
20260506125007 7 307 6.4 6.4 0.00 1.07 1.52 97 1007.2
20260506124907 7 318 3.2 4.8 0.00 1.07 1.52 97 1007.2
20260506124807 7 313 4.8 6.4 0.00 1.07 1.52 97 1007.2
20260506124707 7 318 4.8 4.8 0.00 1.07 1.52 97 1007.2
20260506124607 7 301 1.6 3.2 0.00 1.07 1.52 97 1007.2
20260506124508 7 325 4.8 4.8 0.00 1.07 1.52 97 1007.2
20260506124407 8 331 8.0 8.0 0.00 1.07 1.52 97 1007.2
20260506124307 8 339 6.4 6.4 0.00 1.07 1.52 97 1007.1
20260506124207 7 331 8.0 9.7 0.00 1.07 1.52 97 1007.1
20260506124107 8 325 6.4 8.0 0.00 1.07 1.52 97 1007.1
20260506124007 8 330 9.7 11.3 0.00 1.07 1.52 97 1007.1
20260506123906 8 333 4.8 6.4 0.00 1.07 1.52 97 1007.1
20260506123808 8 338 9.7 9.7 0.00 1.07 1.52 97 1007.1
20260506123707 7 321 6.4 6.4 0.00 1.07 1.52 97 1007.1
20260506123607 7 315 6.4 6.4 0.00 1.07 1.52 97 1007.1
20260506123507 7 307 8.0 8.0 0.00 1.07 1.52 97 1007.1
20260506123407 7 0.0 3.2 0.00 1.07 1.52 97 1007.1
20260506123307 7 311 1.6 1.6 0.00 1.07 1.52 97 1007.1
20260506123206 7 320 1.6 1.6 0.00 1.07 1.52 97 1007.0
20260506123107 7 0.0 3.2 0.00 1.07 1.52 97 1007.1
20260506123007 7 319 4.8 4.8 0.00 1.07 1.52 97 1007.0
20260506122906 7 313 6.4 6.4 0.00 1.07 1.52 97 1007.0
20260506122806 7 298 6.4 11.3 0.00 1.07 1.52 97 1007.0
20260506122708 7 322 6.4 6.4 0.00 1.07 1.52 97 1007.0
20260506122607 7 309 4.8 4.8 0.00 1.07 1.52 97 1007.1
20260506122507 7 306 4.8 4.8 0.00 1.07 1.52 97 1007.0
20260506122406 7 308 8.0 8.0 0.00 1.07 1.52 97 1007.1
20260506122307 7 315 4.8 6.4 0.00 1.07 1.52 97 1007.0
20260506122207 7 0.0 0.0 0.00 1.07 1.52 97 1007.0
20260506122107 7 313 1.6 3.2 0.00 1.07 1.52 97 1007.1
20260506122007 7 0.0 1.6 0.00 1.07 1.52 97 1007.1
20260506121907 7 319 3.2 4.8 0.00 1.07 1.52 97 1007.0
20260506121806 7 315 6.4 6.4 0.00 1.07 1.52 97 1007.0
20260506121707 7 309 3.2 3.2 0.00 1.07 1.52 97 1007.0
20260506121607 7 311 4.8 4.8 0.00 1.07 1.52 97 1007.0
20260506121507 7 315 1.6 3.2 0.00 1.07 1.52 97 1007.0
20260506121407 7 0.0 0.0 0.00 1.07 1.52 97 1007.0
20260506121307 7 0.0 0.0 0.00 1.07 1.52 97 1007.0
20260506121207 7 0.0 0.0 0.00 1.07 1.52 97 1007.0
20260506121107 7 0.0 1.6 0.00 1.07 1.52 97 1007.0
20260506121007 7 319 1.6 3.2 0.00 1.07 1.52 97 1007.0
20260506120906 7 325 3.2 3.2 0.00 1.07 1.52 97 1007.0
20260506120807 8 0.0 0.0 0.00 1.07 1.52 97 1007.0
20260506120707 8 0.0 0.0 0.00 1.07 1.52 97 1007.0
20260506120607 8 0.0 0.0 0.00 1.07 1.52 97 1007.0
20260506120508 8 0.0 0.0 0.00 1.07 1.52 97 1007.0
20260506120407 8 307 3.2 3.2 0.00 1.07 1.52 97 1007.0
20260506120306 8 0.0 1.6 0.00 1.07 1.52 97 1006.9
20260506120207 8 313 1.6 1.6 0.00 1.07 1.52 97 1006.9
20260506120107 8 0.0 0.0 0.00 1.07 1.52 97 1006.9
20260506120007 8 0.0 0.0 0.00 1.07 1.52 97 1006.9
20260506115907 8 317 3.2 4.8 0.00 1.07 1.52 97 1006.9
20260506115807 8 321 8.0 8.0 0.00 1.07 1.52 97 1006.9
20260506115707 8 334 1.6 3.2 0.00 1.07 1.52 97 1006.9
20260506115607 8 0.0 1.6 0.00 1.07 1.52 97 1006.8
20260506115507 8 301 4.8 4.8 0.00 1.07 1.52 97 1006.8
20260506115407 8 322 3.2 3.2 0.00 1.07 1.52 97 1006.8
20260506115307 8 316 3.2 9.7 0.00 1.07 1.52 97 1006.8
20260506115206 8 338 8.0 8.0 0.00 1.07 1.52 97 1006.8
20260506115106 8 315 3.2 3.2 0.00 1.07 1.52 97 1006.8
20260506115007 8 0.0 0.0 0.00 1.07 1.52 97 1006.7
20260506114906 8 0.0 0.0 0.00 1.07 1.52 97 1006.8
20260506114807 8 315 3.2 4.8 0.00 1.07 1.52 97 1006.8
20260506114707 8 299 8.0 9.7 0.00 1.07 1.52 97 1006.8
20260506114607 8 317 6.4 6.4 0.00 1.07 1.52 97 1006.7
20260506114507 8 0.0 1.6 0.00 1.07 1.52 97 1006.7
20260506114407 8 306 4.8 8.0 0.00 1.07 1.52 97 1006.7
20260506114308 8 325 4.8 4.8 0.00 1.07 1.52 97 1006.7
20260506114207 8 324 8.0 8.0 0.00 1.07 1.52 97 1006.7
20260506114107 8 308 4.8 4.8 0.00 1.07 1.52 97 1006.6
20260506114006 8 321 4.8 6.4 0.00 1.07 1.52 97 1006.6
20260506113908 8 307 9.7 9.7 0.00 1.07 1.52 97 1006.6
20260506113807 8 324 1.6 3.2 0.00 1.07 1.52 97 1006.6
20260506113706 8 332 6.4 6.4 0.00 1.07 1.52 97 1006.6
20260506113607 8 0.0 0.0 0.00 1.07 1.52 97 1006.6
20260506113506 8 312 1.6 1.6 0.00 1.07 1.52 97 1006.7
20260506113406 8 304 4.8 8.0 0.00 1.07 1.52 97 1006.7
20260506113306 8 0.0 0.0 0.00 1.07 1.52 97 1006.7
20260506113207 8 0.0 1.6 0.00 1.07 1.52 97 1006.7
20260506113106 8 297 6.4 6.4 0.00 1.07 1.52 97 1006.7
20260506113007 8 305 3.2 3.2 0.00 1.07 1.52 97 1006.7
20260506112907 8 0.0 1.6 0.00 1.07 1.52 97 1006.7
20260506112807 8 321 4.8 4.8 0.00 1.07 1.52 97 1006.7
20260506112707 8 296 4.8 6.4 0.00 1.07 1.52 97 1006.7
20260506112606 8 316 4.8 6.4 0.00 1.07 1.52 97 1006.7
20260506112507 8 315 4.8 6.4 0.00 1.07 1.52 97 1006.7
20260506112406 8 306 1.6 4.8 0.00 1.07 1.52 97 1006.7
20260506112307 8 0.0 0.0 0.00 1.07 1.52 97 1006.7
20260506112206 8 315 1.6 1.6 0.00 1.07 1.52 97 1006.7
20260506112108 8 0.0 0.0 0.00 1.07 1.52 97 1006.7
20260506112007 8 0.0 0.0 0.00 1.07 1.52 97 1006.7
20260506111907 8 318 4.8 4.8 0.00 1.07 1.52 97 1006.8
20260506111807 8 315 4.8 4.8 0.00 1.07 1.52 97 1006.7
20260506111707 8 336 1.6 1.6 0.00 1.07 1.52 97 1006.7
20260506111606 8 336 3.2 3.2 0.00 1.07 1.52 97 1006.8
20260506111506 8 0.0 0.0 0.00 1.07 1.52 97 1006.7
20260506111406 8 0.0 0.0 0.00 1.07 1.52 97 1006.7
20260506111307 8 320 1.6 4.8 0.00 1.07 1.52 97 1006.7
20260506111206 8 0.0 0.0 0.00 1.07 1.52 97 1006.8
20260506111106 8 0.0 0.0 0.00 1.07 1.52 97 1006.7
20260506111007 8 319 3.2 4.8 0.00 1.07 1.52 97 1006.7
20260506110906 8 322 1.6 3.2 0.00 1.07 1.52 97 1006.8
20260506110807 8 0.0 0.0 0.00 1.07 1.52 97 1006.7
20260506110706 8 304 1.6 1.6 0.00 1.07 1.52 97 1006.7
20260506110607 8 321 6.4 6.4 0.00 1.07 1.52 97 1006.7
20260506110506 8 333 1.6 3.2 0.00 1.07 1.52 97 1006.7
20260506110407 8 332 6.4 6.4 0.00 1.07 1.52 97 1006.7
20260506110307 8 329 6.4 8.0 0.00 1.07 1.52 98 1006.7
20260506110206 8 325 6.4 6.4 0.00 1.07 1.52 98 1006.7
20260506110106 8 333 6.4 6.4 0.00 1.07 1.52 98 1006.6
20260506110006 8 319 9.7 9.7 0.00 1.07 1.52 98 1006.6
20260506105907 8 327 8.0 8.0 0.00 1.07 1.52 98 1006.6
20260506105806 8 319 4.8 4.8 0.00 1.07 1.52 98 1006.6
20260506105707 8 304 1.6 3.2 0.00 1.07 1.52 98 1006.6
20260506105606 8 312 6.4 6.4 0.00 1.07 1.52 98 1006.7
20260506105507 8 303 4.8 4.8 0.00 1.07 1.52 98 1006.6
20260506105406 8 317 4.8 4.8 0.00 1.07 1.52 98 1006.7
20260506105306 8 319 9.7 11.3 0.00 1.07 1.52 98 1006.6
20260506105207 8 323 6.4 6.4 0.00 1.07 1.52 98 1006.7
20260506105107 8 314 6.4 6.4 0.00 1.07 1.52 98 1006.6
20260506105007 8 304 9.7 9.7 0.00 1.07 1.52 98 1006.6
20260506104907 8 328 6.4 6.4 0.00 1.07 1.52 98 1006.6
20260506104808 8 313 8.0 8.0 0.00 1.07 1.52 98 1006.6
20260506104706 8 308 1.6 1.6 0.00 1.07 1.52 98 1006.7
20260506104606 8 306 4.8 4.8 0.00 1.07 1.52 98 1006.6
20260506104506 8 340 8.0 8.0 0.00 1.07 1.52 98 1006.6
20260506104407 8 313 3.2 4.8 0.00 1.07 1.52 98 1006.6
20260506104307 8 0.0 0.0 0.00 1.07 1.52 98 1006.6
20260506104206 8 0.0 0.0 0.00 1.07 1.52 98 1006.6
20260506104106 8 313 8.0 8.0 0.00 1.07 1.52 98 1006.6
20260506104007 8 314 6.4 6.4 0.00 1.07 1.52 98 1006.6
20260506103907 8 310 8.0 8.0 0.00 1.07 1.52 98 1006.6
20260506103807 8 329 4.8 4.8 0.00 1.07 1.52 98 1006.6
20260506103707 8 313 6.4 8.0 0.00 1.07 1.52 98 1006.5
20260506103607 8 332 6.4 6.4 0.00 1.07 1.52 98 1006.5
20260506103507 8 331 8.0 8.0 0.00 1.07 1.52 98 1006.5
20260506103407 8 331 4.8 4.8 0.00 1.07 1.52 98 1006.5
20260506103307 8 321 6.4 8.0 0.00 1.07 1.52 98 1006.5
20260506103207 8 333 8.0 8.0 0.00 1.07 1.52 98 1006.5
20260506103107 8 328 8.0 8.0 0.00 1.07 1.52 98 1006.4
20260506103007 8 315 12.9 16.1 0.00 1.07 1.52 98 1006.5
20260506102907 8 299 4.8 6.4 0.00 1.07 1.52 98 1006.4
20260506102806 8 306 1.6 1.6 0.00 1.07 1.52 98 1006.5
20260506102706 8 317 3.2 4.8 0.00 1.07 1.52 98 1006.4
20260506102608 8 309 3.2 3.2 0.00 1.07 1.52 98 1006.5
20260506102506 8 311 3.2 3.2 0.00 1.07 1.52 98 1006.4
20260506102407 8 313 1.6 1.6 0.00 1.07 1.52 98 1006.4
20260506102307 8 315 3.2 4.8 0.00 1.07 1.52 98 1006.4
20260506102207 8 0.0 0.0 0.00 1.07 1.52 98 1006.5
20260506102107 8 317 4.8 4.8 0.00 1.07 1.52 98 1006.4
20260506102007 8 315 4.8 4.8 0.00 1.07 1.52 98 1006.4
20260506101907 8 311 4.8 6.4 0.00 1.07 1.52 98 1006.4
20260506101806 8 312 3.2 6.4 0.00 1.07 1.52 98 1006.5
20260506101707 8 317 8.0 8.0 0.00 1.07 1.52 98 1006.4
20260506101607 8 326 6.4 6.4 0.00 1.07 1.52 98 1006.4
20260506101507 8 0.0 0.0 0.00 1.07 1.52 98 1006.4
20260506101406 8 327 6.4 6.4 0.00 1.07 1.52 98 1006.4
20260506101306 8 321 4.8 4.8 0.00 1.07 1.52 98 1006.4
20260506101206 8 321 4.8 4.8 0.00 1.07 1.52 98 1006.4
20260506101107 8 325 8.0 8.0 0.00 1.07 1.52 98 1006.4
20260506101006 8 332 8.0 8.0 0.00 1.07 1.52 98 1006.3
20260506100907 8 336 6.4 6.4 0.00 1.07 1.52 98 1006.3
20260506100806 8 336 4.8 4.8 0.00 1.07 1.52 98 1006.3
20260506100706 8 324 9.7 9.7 0.00 1.07 1.52 98 1006.4
20260506100607 8 312 9.7 12.9 0.00 1.07 1.52 98 1006.3
20260506100506 8 327 9.7 9.7 0.00 1.07 1.52 98 1006.4
20260506100407 8 315 8.0 8.0 0.00 1.07 1.52 98 1006.4
20260506100306 8 319 9.7 9.7 0.00 1.07 1.52 98 1006.4
20260506100206 8 336 8.0 8.0 0.00 1.07 1.52 98 1006.4
20260506100106 8 318 14.5 14.5 0.00 1.07 1.52 98 1006.4
20260506100007 9 0.0 0.0 0.00 1.07 1.52 98 1006.4
20260506095907 9 325 4.8 4.8 0.00 1.07 1.52 98 1006.4
20260506095807 9 315 4.8 4.8 0.00 1.07 1.52 98 1006.3
20260506095706 9 316 8.0 8.0 0.00 1.07 1.52 98 1006.3
20260506095606 9 283 3.2 4.8 0.00 1.07 1.52 98 1006.3
20260506095507 9 311 3.2 3.2 0.00 1.07 1.52 98 1006.2
20260506095406 9 323 6.4 6.4 0.00 1.07 1.52 98 1006.3
20260506095307 9 335 6.4 6.4 0.00 1.07 1.52 98 1006.2
20260506095206 9 313 8.0 8.0 0.00 1.07 1.52 98 1006.2
20260506095106 9 292 3.2 6.4 0.00 1.07 1.52 98 1006.2
20260506095007 9 315 6.4 6.4 0.00 1.07 1.52 98 1006.2
20260506094907 9 337 9.7 9.7 0.00 1.07 1.52 98 1006.2
20260506094806 9 324 6.4 6.4 0.00 1.07 1.52 98 1006.2
20260506094706 9 319 3.2 4.8 0.00 1.07 1.52 98 1006.2
20260506094606 9 311 4.8 6.4 0.00 1.07 1.52 98 1006.2
20260506094507 9 309 4.8 4.8 0.00 1.07 1.52 98 1006.2
20260506094406 9 316 8.0 9.7 0.00 1.07 1.52 98 1006.1
20260506094307 9 315 4.8 4.8 0.00 1.07 1.52 98 1006.1
20260506094207 9 321 4.8 4.8 0.00 1.07 1.52 98 1006.1
20260506094106 9 333 1.6 4.8 0.00 1.07 1.52 98 1006.1
20260506094006 9 0.0 0.0 0.00 1.07 1.52 98 1006.1
20260506093906 9 0.0 0.0 0.00 1.07 1.52 98 1006.1
20260506093807 9 319 6.4 8.0 0.00 1.07 1.52 98 1006.1
20260506093706 9 330 6.4 6.4 0.00 1.07 1.52 98 1006.1
20260506093607 9 325 9.7 9.7 0.00 1.07 1.52 98 1006.1
20260506093507 9 333 9.7 9.7 0.00 1.07 1.52 98 1006.1
20260506093406 9 319 4.8 4.8 0.00 1.07 1.52 98 1006.1
20260506093306 9 313 4.8 4.8 0.00 1.07 1.52 98 1006.1
20260506093206 9 312 6.4 6.4 0.00 1.07 1.52 98 1006.1
20260506093107 9 314 3.2 4.8 0.00 1.07 1.52 98 1006.1
20260506093006 9 312 6.4 8.0 0.00 1.07 1.52 98 1006.1
20260506092906 9 312 3.2 4.8 0.00 1.07 1.52 98 1006.0
20260506092806 9 311 3.2 4.8 0.00 1.07 1.52 98 1006.0
20260506092707 9 316 8.0 9.7 0.00 1.07 1.52 98 1006.0
20260506092606 9 323 3.2 3.2 0.00 1.07 1.52 98 1006.0
20260506092506 9 311 4.8 4.8 0.00 1.07 1.52 98 1005.9
20260506092407 9 316 4.8 4.8 0.00 1.07 1.52 98 1005.9
20260506092306 9 308 4.8 4.8 0.00 1.07 1.52 98 1005.9
20260506092206 9 304 6.4 8.0 0.00 1.07 1.52 98 1005.9
20260506092106 9 331 8.0 8.0 0.00 1.07 1.52 98 1005.9
20260506092007 9 0.0 0.0 0.00 1.07 1.52 98 1005.9
20260506091906 9 327 3.2 3.2 0.00 1.07 1.52 98 1005.9
20260506091806 9 0.0 0.0 0.00 1.07 1.52 98 1005.9
20260506091706 9 325 1.6 3.2 0.00 1.07 1.52 98 1006.0
20260506091607 9 323 6.4 6.4 0.00 1.07 1.52 98 1005.9
20260506091506 9 319 3.2 6.4 0.00 1.07 1.52 98 1006.0
20260506091407 9 319 4.8 6.4 0.00 1.07 1.52 98 1005.9
20260506091306 9 321 8.0 8.0 0.00 1.07 1.52 98 1005.9
20260506091206 9 331 4.8 4.8 0.00 1.07 1.52 98 1005.9
20260506091106 9 0.0 0.0 0.00 1.07 1.52 98 1005.9
20260506091007 9 327 4.8 6.4 0.00 1.07 1.52 98 1005.9
20260506090907 9 317 3.2 3.2 0.00 1.07 1.52 98 1005.9
20260506090807 9 321 6.4 6.4 0.00 1.07 1.52 98 1005.9
20260506090706 9 330 3.2 3.2 0.00 1.07 1.52 98 1005.9
20260506090606 9 333 3.2 3.2 0.00 1.07 1.52 98 1005.9
20260506090507 9 334 3.2 3.2 0.00 1.07 1.52 98 1005.8
20260506090407 9 333 4.8 4.8 0.00 1.07 1.52 98 1005.9
20260506090307 9 311 3.2 3.2 0.00 1.07 1.52 98 1005.8
20260506090207 9 311 1.6 1.6 0.00 1.07 1.52 98 1005.8
20260506090106 9 310 3.2 3.2 0.00 1.07 1.52 98 1005.8
20260506090006 9 327 1.6 4.8 0.00 1.07 1.52 98 1005.7
20260506085906 9 0.0 0.0 0.00 1.07 1.52 98 1005.7
20260506085807 9 321 4.8 4.8 0.00 1.07 1.52 98 1005.7
20260506085706 9 284 4.8 4.8 0.00 1.07 1.52 98 1005.7
20260506085606 9 297 3.2 3.2 0.00 1.07 1.52 98 1005.7
20260506085506 9 310 6.4 6.4 0.00 1.07 1.52 98 1005.7
20260506085407 9 313 3.2 3.2 0.00 1.07 1.52 98 1005.7
20260506085307 9 0.0 0.0 0.00 1.07 1.52 98 1005.7
20260506085206 9 310 4.8 4.8 0.00 1.07 1.52 98 1005.7
20260506085106 9 328 6.4 6.4 0.00 1.07 1.52 98 1005.7
20260506085006 9 329 3.2 3.2 0.00 1.07 1.52 98 1005.7
20260506084907 9 336 4.8 4.8 0.00 1.07 1.52 98 1005.6
20260506084806 9 334 4.8 4.8 0.00 1.07 1.52 98 1005.6
20260506084707 9 327 3.2 3.2 0.00 1.07 1.52 98 1005.6
20260506084606 9 327 6.4 6.4 0.00 1.07 1.52 98 1005.6
20260506084506 9 319 6.4 6.4 0.00 1.07 1.52 98 1005.6
20260506084406 9 331 3.2 4.8 0.00 1.07 1.52 98 1005.6
20260506084307 9 329 3.2 4.8 0.00 1.07 1.52 98 1005.6
20260506084206 9 306 8.0 8.0 0.00 1.07 1.52 98 1005.6
20260506084106 9 322 6.4 8.0 0.03 1.07 1.52 98 1005.6
20260506084007 9 329 6.4 6.4 0.03 1.07 1.52 98 1005.7
20260506083906 9 326 9.7 9.7 0.03 1.07 1.52 98 1005.6
20260506083806 9 315 1.6 1.6 0.03 1.07 1.52 98 1005.6
20260506083706 9 0.0 0.0 0.03 1.07 1.52 98 1005.6
20260506083607 9 0.0 1.6 0.03 1.07 1.52 98 1005.6
20260506083507 9 316 1.6 1.6 0.03 1.07 1.52 98 1005.6
20260506083406 9 0.0 0.0 0.03 1.07 1.52 98 1005.6
20260506083307 9 0.0 0.0 0.03 1.07 1.52 98 1005.6
20260506083207 9 0.0 0.0 0.03 1.07 1.52 98 1005.6
20260506083106 9 0.0 1.6 0.03 1.07 1.52 98 1005.6
20260506083006 9 308 4.8 4.8 0.03 1.07 1.52 98 1005.5
20260506082906 9 336 3.2 4.8 0.03 1.07 1.52 98 1005.5
20260506082806 9 323 8.0 14.5 0.03 1.07 1.52 98 1005.5
20260506082652 9 319 9.7 11.3 0.03 1.07 1.52 98 1005.6
20260506082552 9 322 6.4 6.4 0.03 1.07 1.52 98 1005.6
20260506082453 9 315 3.2 3.2 0.03 1.07 1.52 98 1005.6
20260506082352 9 313 4.8 4.8 0.03 1.07 1.52 98 1005.6
20260506082242 9 304 3.2 3.2 0.03 1.07 1.50 98 1005.6
20260506082142 9 316 3.2 4.8 0.03 1.07 1.50 98 1005.5
20260506082043 9 296 6.4 8.0 0.03 1.07 1.50 98 1005.5
20260506081932 9 284 3.2 3.2 0.03 1.07 1.50 98 1005.5
20260506081832 9 237 3.2 6.4 0.03 1.07 1.50 98 1005.5
20260506081733 9 309 6.4 6.4 0.03 1.07 1.50 98 1005.5
20260506081633 9 311 4.8 6.4 0.03 1.07 1.50 98 1005.5
20260506081532 9 306 4.8 6.4 0.03 1.07 1.50 98 1005.5
20260506081432 9 0.0 0.0 0.03 1.07 1.50 98 1005.5
20260506081333 9 0.0 0.0 0.03 1.07 1.50 98 1005.5
20260506081232 9 0.0 0.0 0.03 1.07 1.50 98 1005.4
20260506081132 9 0.0 0.0 0.03 1.07 1.50 98 1005.5
20260506081032 9 271 4.8 4.8 0.03 1.07 1.50 98 1005.4
20260506080933 9 0.0 0.0 0.03 1.07 1.50 98 1005.5
20260506080832 9 0.0 0.0 0.03 1.07 1.50 98 1005.5
20260506080732 9 0.0 0.0 0.03 1.07 1.50 98 1005.5
20260506080632 9 0.0 0.0 0.03 1.07 1.50 98 1005.4
20260506080532 9 0.0 0.0 0.03 1.07 1.50 98 1005.4
20260506080432 9 0.0 0.0 0.03 1.07 1.50 98 1005.5
20260506080332 9 312 4.8 6.4 0.03 1.07 1.50 98 1005.4
20260506080233 9 319 3.2 3.2 0.03 1.07 1.50 98 1005.4
20260506080133 9 218 1.6 1.6 0.03 1.07 1.50 98 1005.4
20260506073503 10 310 1.6 1.6 0.05 1.04 1.45 98 1005.2
20260506073402 10 310 1.6 3.2 0.05 1.04 1.45 98 1005.2
20260506073302 10 314 6.4 6.4 0.05 1.04 1.45 98 1005.2
20260506073202 10 325 4.8 4.8 0.05 1.04 1.45 98 1005.2
20260506073102 10 327 3.2 3.2 0.05 1.04 1.45 98 1005.2
20260506073002 10 327 3.2 3.2 0.05 1.04 1.45 98 1005.2
20260506072903 10 321 4.8 4.8 0.05 1.04 1.45 98 1005.2
20260506072803 10 324 4.8 4.8 0.05 1.04 1.45 98 1005.2
20260506072702 10 326 3.2 3.2 0.05 1.04 1.45 98 1005.2
20260506072602 10 326 4.8 4.8 0.05 1.04 1.45 98 1005.2
20260506072503 10 326 3.2 3.2 0.05 1.04 1.45 98 1005.2
20260506072402 10 325 3.2 3.2 0.05 1.04 1.45 98 1005.1
20260506072253 10 325 4.8 4.8 0.05 1.04 1.45 98 1005.1
20260506072152 10 325 1.6 3.2 0.05 1.04 1.45 98 1005.2
20260506072052 10 325 3.2 3.2 0.05 1.04 1.45 98 1005.1
20260506071952 10 326 1.6 1.6 0.05 1.04 1.45 98 1005.2
20260506071852 10 328 3.2 3.2 0.08 1.04 1.45 98 1005.1
20260506071753 10 328 4.8 6.4 0.08 1.04 1.45 98 1005.1
20260506071656 10 324 3.2 3.2 0.08 1.04 1.45 98 1005.2
20260506071542 10 324 1.6 3.2 0.08 1.04 1.45 98 1005.1
20260506071442 10 323 3.2 4.8 0.08 1.04 1.45 98 1005.2
20260506071343 10 336 4.8 4.8 0.08 1.04 1.45 98 1005.1
20260506071242 10 328 3.2 3.2 0.08 1.04 1.45 98 1005.1
20260506071142 10 328 3.2 3.2 0.08 1.04 1.45 98 1005.1
20260506071042 10 329 4.8 4.8 0.08 1.04 1.45 98 1005.1
20260506070932 10 329 4.8 4.8 0.08 1.04 1.45 98 1005.1
20260506070832 10 329 3.2 3.2 0.08 1.04 1.45 98 1005.1
20260506070732 10 329 1.6 1.6 0.08 1.04 1.45 98 1005.1
20260506070633 10 0.0 0.0 0.08 1.04 1.45 98 1005.1
20260506070532 10 331 3.2 3.2 0.08 1.04 1.45 98 1005.1
20260506070432 10 331 1.6 3.2 0.08 1.04 1.45 98 1005.1
20260506070332 10 331 1.6 1.6 0.08 1.04 1.45 98 1005.1
20260506070233 9 331 4.8 4.8 0.08 1.04 1.45 98 1005.1
20260506070132 9 0.0 0.0 0.08 1.04 1.45 98 1005.1
20260506062422 9 0.0 1.6 0.05 0.99 1.37 98 1005.0
20260506062322 9 0.0 0.0 0.05 0.99 1.37 98 1004.9
20260506062223 9 0.0 0.0 0.05 0.99 1.37 98 1004.9
20260506062122 9 0.0 0.0 0.05 0.99 1.37 98 1005.0
20260506062022 9 355 1.6 1.6 0.05 0.99 1.37 98 1005.0
20260506061922 9 355 3.2 3.2 0.03 0.97 1.35 98 1004.9
20260506061823 9 0.0 0.0 0.03 0.97 1.35 98 1005.0
20260506061722 9 0.0 0.0 0.03 0.97 1.35 98 1004.9
20260506061622 9 19 1.6 1.6 0.05 0.97 1.35 98 1004.9
20260506061523 9 0.0 0.0 0.05 0.97 1.35 98 1004.9
20260506061422 9 0.0 0.0 0.05 0.97 1.35 98 1004.9
20260506061322 9 19 1.6 3.2 0.05 0.97 1.32 98 1004.9
20260506061222 9 0.0 0.0 0.05 0.97 1.32 98 1004.9
20260506061123 9 0.0 0.0 0.05 0.97 1.32 98 1004.8
20260506061022 9 0.0 0.0 0.05 0.97 1.32 98 1004.9
20260506060922 9 0.0 0.0 0.05 0.97 1.30 98 1004.8
20260506060822 9 0.0 0.0 0.05 0.97 1.30 98 1004.8
20260506060723 9 0.0 0.0 0.05 0.97 1.30 98 1004.8
20260506060622 9 0.0 0.0 0.05 0.97 1.30 98 1004.8
20260506060522 9 0.0 0.0 0.05 0.97 1.30 98 1004.8
20260506060422 9 0.0 0.0 0.05 0.97 1.30 98 1004.8
20260506060322 9 0.0 0.0 0.05 0.97 1.27 98 1004.9
20260506060222 9 0.0 0.0 0.05 0.97 1.27 98 1004.8
20260506060122 9 22 3.2 3.2 0.05 0.97 1.27 98 1004.8
20260506051322 9 0.0 0.0 0.05 0.91 1.17 98 1004.7
20260506051222 9 0.0 0.0 0.05 0.91 1.17 98 1004.6
20260506051122 9 17 1.6 1.6 0.05 0.91 1.17 98 1004.7
20260506051023 9 0.0 0.0 0.05 0.91 1.17 98 1004.6
20260506050922 9 0.0 0.0 0.05 0.91 1.17 98 1004.7
20260506050823 9 0.0 0.0 0.05 0.91 1.17 98 1004.7
20260506050722 9 0.0 0.0 0.05 0.91 1.17 98 1004.7
20260506050622 9 0.0 0.0 0.05 0.91 1.17 98 1004.7
20260506050523 9 0.0 0.0 0.05 0.91 1.17 98 1004.7
20260506050422 9 0.0 0.0 0.05 0.89 1.14 98 1004.7
20260506050322 9 0.0 0.0 0.05 0.89 1.14 98 1004.7
20260506050222 9 0.0 0.0 0.05 0.89 1.14 98 1004.7
20260506050123 9 0.0 0.0 0.05 0.89 1.14 98 1004.7
20260506045122 9 0.0 0.0 0.05 0.89 1.12 98 1004.7
20260506045022 9 0.0 0.0 0.05 0.89 1.12 98 1004.7
20260506044922 9 0.0 0.0 0.05 0.89 1.09 98 1004.7
20260506044822 9 0.0 0.0 0.05 0.89 1.09 98 1004.7
20260506044722 9 35 1.6 1.6 0.05 0.89 1.09 98 1004.7
20260506044622 9 0.0 0.0 0.05 0.89 1.09 98 1004.7
20260506044522 9 0.0 0.0 0.05 0.89 1.09 98 1004.7
20260506044422 9 0.0 0.0 0.05 0.89 1.09 98 1004.8
20260506044323 9 0.0 0.0 0.05 0.89 1.09 98 1004.8
20260506044222 9 0.0 0.0 0.05 0.89 1.09 98 1004.7
20260506044122 9 0.0 0.0 0.05 0.89 1.09 98 1004.8
20260506044022 9 0.0 0.0 0.05 0.89 1.07 98 1004.8
20260506043923 9 39 1.6 1.6 0.05 0.89 1.07 98 1004.7
20260506043822 9 37 1.6 1.6 0.05 0.89 1.07 98 1004.7
20260506043722 9 0.0 0.0 0.05 0.89 1.07 98 1004.7
20260506043622 9 0.0 0.0 0.05 0.89 1.07 98 1004.7
20260506043522 9 0.0 0.0 0.05 0.89 1.07 98 1004.7
20260506043422 9 0.0 0.0 0.05 0.89 1.07 98 1004.7
20260506043322 9 0.0 0.0 0.08 0.89 1.07 98 1004.8
20260506043223 9 35 1.6 3.2 0.08 0.89 1.07 98 1004.7
20260506043122 9 0.0 0.0 0.08 0.89 1.07 98 1004.7
20260506043022 9 34 1.6 1.6 0.08 0.89 1.07 98 1004.7
20260506042922 9 0.0 0.0 0.05 0.89 1.04 98 1004.7
20260506042822 9 0.0 0.0 0.05 0.89 1.04 98 1004.6
20260506042722 9 0.0 0.0 0.05 0.89 1.04 98 1004.6
20260506042622 9 0.0 0.0 0.05 0.89 1.04 98 1004.6
20260506042522 9 0.0 0.0 0.05 0.89 1.04 98 1004.7
20260506042422 9 0.0 0.0 0.05 0.89 1.04 98 1004.7
20260506042322 9 52 1.6 1.6 0.05 0.89 1.04 98 1004.7
20260506042222 9 0.0 0.0 0.05 0.89 1.04 98 1004.7
20260506042123 9 45 3.2 3.2 0.05 0.89 1.04 98 1004.7
20260506042022 9 0.0 0.0 0.05 0.89 1.04 98 1004.7
20260506041922 9 0.0 0.0 0.05 0.89 1.04 98 1004.7
20260506041822 9 0.0 0.0 0.05 0.89 1.02 98 1004.7
20260506041723 9 42 1.6 1.6 0.05 0.89 1.02 98 1004.7
20260506041622 9 43 3.2 3.2 0.05 0.89 1.02 98 1004.7
20260506041522 9 0.0 0.0 0.05 0.89 1.02 98 1004.7
20260506041422 9 0.0 0.0 0.05 0.89 1.02 98 1004.6
20260506041322 9 0.0 0.0 0.05 0.89 1.02 98 1004.6
20260506041222 9 42 6.4 6.4 0.05 0.89 0.99 98 1004.7
20260506041122 9 338 3.2 4.8 0.05 0.89 0.99 98 1004.6
20260506041023 9 0.0 0.0 0.05 0.89 0.99 98 1004.7
20260506040922 9 0.0 0.0 0.05 0.89 0.99 98 1004.7
20260506040822 9 0.0 1.6 0.05 0.89 0.99 98 1004.7
20260506040722 9 0.0 0.0 0.05 0.86 0.99 98 1004.7
20260506040622 9 0.0 0.0 0.05 0.86 0.99 98 1004.7
20260506040522 9 55 1.6 1.6 0.05 0.86 0.99 98 1004.7
20260506040422 9 20 1.6 1.6 0.05 0.86 0.99 98 1004.7
20260506040322 9 0.0 0.0 0.05 0.86 0.99 98 1004.7
20260506040222 9 0.0 0.0 0.05 0.86 0.99 98 1004.7
20260506040122 9 0.0 0.0 0.05 0.86 0.97 98 1004.7
20260506040022 9 0.0 0.0 0.05 0.86 0.97 98 1004.7
20260506035923 9 0.0 0.0 0.05 0.86 0.97 98 1004.7
20260506035822 9 0.0 0.0 0.05 0.86 0.97 98 1004.8
20260506035722 9 0.0 0.0 0.05 0.86 0.97 98 1004.7
20260506035622 9 0.0 0.0 0.05 0.86 0.97 98 1004.8
20260506035523 9 0.0 1.6 0.05 0.86 0.97 98 1004.7
20260506035422 9 0.0 0.0 0.05 0.86 0.97 98 1004.8
20260506035322 9 0.0 0.0 0.05 0.86 0.97 98 1004.8
20260506035222 9 0.0 0.0 0.05 0.86 0.97 98 1004.8
20260506035122 9 0.0 0.0 0.05 0.86 0.97 98 1004.8
20260506035022 9 11 1.6 1.6 0.05 0.86 0.97 98 1004.8
20260506034922 9 11 1.6 3.2 0.05 0.86 0.97 98 1004.8
20260506034822 9 0.0 0.0 0.05 0.86 0.94 98 1004.7
20260506034722 9 0.0 0.0 0.05 0.86 0.94 98 1004.7
20260506034622 9 0.0 0.0 0.05 0.86 0.94 98 1004.7
20260506034522 9 0.0 0.0 0.05 0.86 0.94 98 1004.7
20260506034423 9 0.0 0.0 0.05 0.86 0.94 98 1004.7
20260506034322 9 0.0 1.6 0.05 0.86 0.94 98 1004.7
20260506034222 9 0.0 0.0 0.05 0.86 0.94 98 1004.7
20260506034122 9 0.0 0.0 0.05 0.86 0.94 98 1004.7
20260506034022 9 0.0 0.0 0.05 0.84 0.91 98 1004.7
20260506033922 9 0.0 0.0 0.05 0.84 0.91 98 1004.7
20260506033822 9 0.0 0.0 0.05 0.84 0.91 98 1004.7
20260506033722 9 0.0 0.0 0.05 0.84 0.91 98 1004.7
20260506033622 9 0.0 0.0 0.05 0.84 0.91 98 1004.7
20260506033522 9 0.0 0.0 0.05 0.84 0.91 98 1004.7
20260506033422 9 0.0 0.0 0.05 0.84 0.91 98 1004.8
20260506033322 9 0.0 0.0 0.03 0.81 0.89 98 1004.9
20260506033222 9 0.0 0.0 0.03 0.81 0.89 98 1004.9
20260506033122 9 0.0 1.6 0.03 0.81 0.89 98 1004.8
20260506033022 9 38 1.6 1.6 0.03 0.81 0.89 98 1004.9
20260506032921 9 0.0 0.0 0.03 0.81 0.89 98 1004.9
20260506032822 9 0.0 0.0 0.03 0.81 0.89 98 1004.9
20260506032722 9 47 3.2 3.2 0.03 0.81 0.89 98 1004.8
20260506032623 9 0.0 0.0 0.03 0.81 0.89 98 1004.8
20260506032522 9 0.0 0.0 0.03 0.81 0.89 98 1004.9
20260506032422 9 0.0 0.0 0.03 0.81 0.89 98 1004.8
20260506032322 9 0.0 1.6 0.03 0.81 0.89 98 1004.8
20260506032222 9 35 1.6 3.2 0.03 0.81 0.86 98 1004.9
20260506032122 9 0.0 0.0 0.03 0.81 0.86 98 1004.8
20260506032022 9 35 4.8 4.8 0.05 0.81 0.86 98 1004.9
20260506031922 9 32 1.6 3.2 0.05 0.81 0.86 98 1004.8
20260506031822 9 0.0 0.0 0.05 0.81 0.84 98 1004.9
20260506031722 9 0.0 0.0 0.05 0.81 0.84 98 1004.9
20260506031622 9 24 1.6 1.6 0.05 0.81 0.84 98 1004.9
20260506031523 9 0.0 0.0 0.05 0.81 0.81 98 1004.9
20260506031422 9 0.0 0.0 0.05 0.81 0.81 98 1004.9
20260506031322 9 0.0 0.0 0.05 0.81 0.81 98 1004.9
20260506031222 9 0.0 0.0 0.05 0.81 0.81 98 1005.0
20260506031122 9 29 4.8 4.8 0.05 0.81 0.79 98 1005.0
20260506031022 9 0.0 0.0 0.05 0.81 0.79 98 1005.0
20260506030922 10 0.0 0.0 0.05 0.81 0.79 98 1005.0
20260506030822 10 0.0 0.0 0.05 0.81 0.79 98 1005.0
20260506030722 10 0.0 0.0 0.05 0.81 0.79 98 1005.1
20260506030622 10 0.0 0.0 0.05 0.81 0.79 98 1005.1
20260506030522 10 0.0 0.0 0.05 0.81 0.79 98 1005.1
20260506030423 10 0.0 0.0 0.05 0.81 0.79 98 1005.1
20260506030321 10 0.0 0.0 0.05 0.81 0.79 98 1005.1
20260506030222 10 0.0 0.0 0.05 0.81 0.79 98 1005.1
20260506030122 10 34 1.6 1.6 0.05 0.81 0.79 98 1005.0
20260506030023 10 0.0 1.6 0.05 0.81 0.79 98 1005.1
20260506025922 10 0.0 0.0 0.05 0.81 0.79 98 1005.1
20260506025822 10 0.0 0.0 0.05 0.81 0.76 98 1005.1
20260506025722 10 0.0 0.0 0.05 0.81 0.76 98 1005.1
20260506025622 10 0.0 0.0 0.05 0.81 0.76 98 1005.1
20260506025522 10 41 1.6 3.2 0.05 0.81 0.76 98 1005.1
20260506025422 10 0.0 0.0 0.05 0.81 0.76 98 1005.1
20260506025323 10 43 1.6 1.6 0.05 0.81 0.76 98 1005.1
20260506025222 10 0.0 0.0 0.05 0.81 0.76 98 1005.2
20260506025122 10 0.0 0.0 0.05 0.81 0.76 98 1005.1
20260506025022 10 0.0 0.0 0.05 0.81 0.76 98 1005.1
20260506024922 10 0.0 0.0 0.05 0.81 0.74 98 1005.1
20260506024822 10 42 3.2 3.2 0.05 0.81 0.74 98 1005.2
20260506024722 10 0.0 0.0 0.05 0.81 0.74 98 1005.1
20260506024622 10 0.0 0.0 0.05 0.81 0.74 98 1005.2
20260506024522 10 0.0 0.0 0.05 0.81 0.74 98 1005.2
20260506024422 10 0.0 0.0 0.05 0.81 0.74 98 1005.2
20260506024322 10 36 1.6 1.6 0.05 0.81 0.74 98 1005.3
20260506024223 10 0.0 0.0 0.05 0.81 0.74 98 1005.3
20260506024122 10 0.0 0.0 0.05 0.81 0.74 98 1005.2
20260506024022 10 0.0 0.0 0.03 0.79 0.71 98 1005.3
20260506023922 10 36 1.6 1.6 0.03 0.79 0.71 98 1005.3
20260506023822 10 0.0 0.0 0.03 0.79 0.71 98 1005.3
20260506023722 10 0.0 0.0 0.03 0.79 0.71 98 1005.3
20260506023622 10 0.0 0.0 0.03 0.79 0.71 98 1005.3
20260506023522 10 0.0 0.0 0.03 0.79 0.71 98 1005.3
20260506023422 10 0.0 0.0 0.03 0.79 0.71 98 1005.4
20260506023322 10 0.0 0.0 0.03 0.79 0.71 98 1005.4
20260506023222 10 0.0 0.0 0.03 0.79 0.71 98 1005.3
20260506023122 10 0.0 0.0 0.03 0.79 0.71 98 1005.3
20260506023022 10 0.0 0.0 0.03 0.79 0.71 98 1005.3
20260506022922 10 0.0 0.0 0.03 0.79 0.71 98 1005.3
20260506022822 10 0.0 0.0 0.03 0.79 0.71 98 1005.4
20260506022723 10 0.0 0.0 0.03 0.79 0.71 98 1005.3
20260506022622 10 0.0 0.0 0.03 0.79 0.71 98 1005.4
20260506022522 10 0.0 0.0 0.03 0.79 0.71 98 1005.4
20260506022422 10 0.0 0.0 0.03 0.79 0.71 98 1005.4
20260506022322 10 0.0 1.6 0.03 0.79 0.71 98 1005.4
20260506022222 10 0.0 0.0 0.03 0.79 0.71 98 1005.4
20260506022122 10 0.0 0.0 0.03 0.79 0.71 98 1005.4
20260506022023 10 0.0 0.0 0.00 0.79 0.71 98 1005.4
20260506021922 10 0.0 0.0 0.00 0.79 0.71 98 1005.4
20260506021821 10 0.0 0.0 0.00 0.79 0.71 98 1005.5
20260506021722 10 0.0 0.0 0.00 0.79 0.71 98 1005.4
20260506021622 10 0.0 0.0 0.00 0.79 0.71 98 1005.4
20260506021522 10 0.0 0.0 0.00 0.79 0.71 98 1005.5
20260506021422 10 0.0 0.0 0.00 0.79 0.71 98 1005.5
20260506021322 10 0.0 0.0 0.00 0.79 0.71 98 1005.5
20260506021222 10 0.0 0.0 0.00 0.79 0.71 98 1005.5
20260506021122 10 0.0 0.0 0.03 0.79 0.71 98 1005.5
20260506021021 10 0.0 0.0 0.03 0.79 0.71 98 1005.5
20260506020923 10 0.0 0.0 0.03 0.79 0.71 98 1005.5
20260506020822 10 0.0 0.0 0.03 0.79 0.71 98 1005.5
20260506020722 10 0.0 0.0 0.03 0.79 0.71 98 1005.5
20260506020622 10 0.0 0.0 0.03 0.79 0.71 98 1005.5
20260506020522 10 0.0 0.0 0.03 0.79 0.71 98 1005.5
20260506020422 10 0.0 0.0 0.03 0.79 0.69 98 1005.5
20260506020322 10 0.0 0.0 0.03 0.79 0.69 98 1005.6
20260506020222 10 0.0 0.0 0.03 0.79 0.69 98 1005.5
20260506020122 10 0.0 0.0 0.03 0.79 0.69 98 1005.6
20260506020022 10 0.0 0.0 0.03 0.79 0.69 98 1005.6
20260506015922 10 0.0 0.0 0.03 0.79 0.69 98 1005.6
20260506015823 10 0.0 0.0 0.03 0.79 0.69 98 1005.6